EW4595 Weather Reports


Display with metric or nautical units.
time (UTC)temp
F
wind
direction
speed
MPH
gust
MPH
rain 1hr
in
rain 24hr
in
rain mn
in
humidity
%
barometer
mb
20260901125203 62 115 2.0 7.0 0.00 0.00 0.00 79 1021.6
20260901125117 62 120 1.0 7.0 0.00 0.00 0.00 79 1021.7
20260901125103 62 119 3.0 7.0 0.00 0.00 0.00 79 1021.6
20260901125003 62 107 3.0 7.0 0.00 0.00 0.00 79 1021.7
20260901124803 62 88 4.0 7.0 0.00 0.00 0.00 79 1021.4
20260901124703 63 117 2.0 6.0 0.00 0.00 0.00 79 1021.4
20260901124603 63 113 1.0 6.0 0.00 0.00 0.00 81 1021.6
20260901124504 63 103 1.0 6.0 0.00 0.00 0.00 81 1021.5
20260901124403 62 105 2.0 6.0 0.00 0.00 0.00 81 1021.5
20260901124303 62 113 4.0 8.0 0.00 0.00 0.00 81 1021.4
20260901124203 62 115 2.0 8.0 0.00 0.00 0.00 81 1021.4
20260901124103 62 115 1.0 8.0 0.00 0.00 0.00 82 1021.5
20260901124018 62 117 2.0 8.0 0.00 0.00 0.00 82 1021.4
20260901124003 62 118 2.0 8.0 0.00 0.00 0.00 82 1021.4
20260901123903 62 122 2.0 8.0 0.00 0.00 0.00 82 1021.5
20260901123703 62 133 2.0 6.0 0.00 0.00 0.00 83 1021.4
20260901123618 62 129 1.0 4.0 0.00 0.00 0.00 83 1021.6
20260901123603 62 128 1.0 4.0 0.00 0.00 0.00 83 1021.6
20260901123503 61 130 1.0 6.0 0.00 0.00 0.00 84 1021.5
20260901123303 61 110 1.0 6.0 0.00 0.00 0.00 84 1021.6
20260901123203 61 107 2.0 6.0 0.00 0.00 0.00 84 1021.5
20260901123103 60 108 3.0 6.0 0.00 0.00 0.00 85 1021.2
20260901123003 60 98 4.0 6.0 0.00 0.00 0.00 85 1021.5
20260901122903 60 104 2.0 4.0 0.00 0.00 0.00 85 1021.8
20260901122803 60 119 1.0 4.0 0.00 0.00 0.00 86 1021.4
20260901122703 60 122 1.0 4.0 0.00 0.00 0.00 87 1021.4
20260901122603 60 133 2.0 4.0 0.00 0.00 0.00 87 1021.4
20260901122503 59 145 2.0 4.0 0.00 0.00 0.00 87 1021.4
20260901122403 59 141 1.0 6.0 0.00 0.00 0.00 87 1021.6
20260901122306 59 145 2.0 6.0 0.00 0.00 0.00 88 1021.4
20260901122203 59 147 2.0 6.0 0.00 0.00 0.00 88 1021.7
20260901122103 58 158 2.0 6.0 0.00 0.00 0.00 88 1021.5
20260901122003 58 153 3.0 6.0 0.00 0.00 0.00 88 1021.5
20260901121917 58 141 3.0 6.0 0.00 0.00 0.00 88 1021.6
20260901121903 59 142 2.0 6.0 0.00 0.00 0.00 89 1021.5
20260901121803 58 125 2.0 6.0 0.00 0.00 0.00 89 1021.7
20260901121603 58 134 2.0 4.0 0.00 0.00 0.00 89 1021.6
20260901121503 58 149 1.0 4.0 0.00 0.00 0.00 90 1021.7
20260901121403 58 179 1.0 4.0 0.00 0.00 0.00 90 1021.5
20260901121303 58 199 1.0 4.0 0.00 0.00 0.00 91 1021.6
20260901121203 58 204 1.0 4.0 0.00 0.00 0.00 91 1021.7
20260901121103 57 200 2.0 4.0 0.00 0.00 0.00 91 1021.5
20260901121003 57 173 2.0 4.0 0.00 0.00 0.00 91 1021.5
20260901120903 58 165 1.0 2.0 0.00 0.00 0.00 91 1021.8
20260901120803 58 144 2.0 2.0 0.00 0.00 0.00 91 1021.3
20260901120703 57 139 1.0 2.0 0.00 0.00 0.00 92 1021.5
20260901120603 58 160 0.0 4.0 0.00 0.00 0.00 92 1021.3
20260901120503 58 173 1.0 4.0 0.00 0.00 0.00 92 1021.4
20260901120403 58 177 0.0 4.0 0.00 0.00 0.00 92 1021.3
20260901120303 57 186 1.0 4.0 0.00 0.00 0.00 93 1021.3
20260901120203 57 188 0.0 4.0 0.00 0.00 0.00 93 1021.6
20260901120003 57 161 1.0 4.0 0.00 0.00 0.00 93 1021.2
20260901115903 57 161 0.0 4.0 0.00 0.00 0.00 94 1021.3
20260901115803 56 154 1.0 4.0 0.00 0.00 0.00 93 1021.0
20260901115703 57 125 1.0 4.0 0.00 0.00 0.00 94 1021.2
20260901115603 57 118 1.0 4.0 0.00 0.00 0.00 94 1021.2
20260901115503 57 118 0.0 2.0 0.00 0.00 0.00 94 1021.0
20260901115403 57 116 0.0 4.0 0.00 0.00 0.00 94 1021.0
20260901115306 56 111 0.0 4.0 0.00 0.00 0.00 94 1021.1
20260901115203 57 106 0.0 4.0 0.00 0.00 0.00 94 1021.3
20260901115103 56 117 0.0 4.0 0.00 0.00 0.00 95 1021.0
20260901115003 56 131 0.0 4.0 0.00 0.00 0.00 95 1021.1
20260901114903 56 139 2.0 4.0 0.00 0.00 0.00 95 1021.2
20260901114803 56 148 1.0 2.0 0.00 0.00 0.00 95 1021.2
20260901114703 56 154 0.0 4.0 0.00 0.00 0.00 95 1021.1
20260901114603 56 125 1.0 4.0 0.00 0.00 0.00 95 1021.1
20260901114503 56 120 1.0 4.0 0.00 0.00 0.00 95 1021.1
20260901114403 56 118 0.0 4.0 0.00 0.00 0.00 95 1021.1
20260901114303 55 119 0.0 4.0 0.00 0.00 0.00 95 1021.1
20260901114203 55 139 2.0 4.0 0.00 0.00 0.00 95 1021.2
20260901114117 56 163 0.0 4.0 0.00 0.00 0.00 95 1021.0
20260901114103 56 166 0.0 4.0 0.00 0.00 0.00 95 1021.0
20260901114003 55 203 1.0 4.0 0.00 0.00 0.00 95 1021.0
20260901113803 55 188 1.0 4.0 0.00 0.00 0.00 96 1020.8
20260901113703 55 158 0.0 4.0 0.00 0.00 0.00 96 1021.0
20260901113603 55 154 1.0 4.0 0.00 0.00 0.00 96 1021.1
20260901113503 55 117 1.0 4.0 0.00 0.00 0.00 96 1021.0
20260901113403 55 101 1.0 2.0 0.00 0.00 0.00 96 1020.8
20260901113303 55 108 1.0 2.0 0.00 0.00 0.00 96 1020.8
20260901113218 55 90 1.0 2.0 0.00 0.00 0.00 96 1021.1
20260901113203 55 71 1.0 2.0 0.00 0.00 0.00 96 1021.1
20260901113103 55 112 1.0 2.0 0.00 0.00 0.00 96 1020.8
20260901112903 55 46 0.0 4.0 0.00 0.00 0.00 96 1020.8
20260901112803 55 46 0.0 4.0 0.00 0.00 0.00 96 1020.7
20260901112703 55 168 0.0 4.0 0.00 0.00 0.00 96 1020.8
20260901112603 55 173 0.0 4.0 0.00 0.00 0.00 96 1020.8
20260901112503 54 136 2.0 4.0 0.00 0.00 0.00 96 1020.9
20260901112403 54 135 0.0 4.0 0.00 0.00 0.00 96 1020.7
20260901112306 54 139 1.0 4.0 0.00 0.00 0.00 96 1020.7
20260901112203 54 136 0.0 2.0 0.00 0.00 0.00 96 1020.6
20260901112103 55 137 0.0 2.0 0.00 0.00 0.00 96 1020.7
20260901112003 54 147 0.0 2.0 0.00 0.00 0.00 96 1020.7
20260901111903 54 153 0.0 2.0 0.00 0.00 0.00 96 1020.8
20260901111803 54 167 0.0 2.0 0.00 0.00 0.00 96 1020.8
20260901111703 54 186 0.0 2.0 0.00 0.00 0.00 96 1020.8
20260901111603 54 194 0.0 2.0 0.00 0.00 0.00 96 1020.5
20260901111503 54 209 1.0 2.0 0.00 0.00 0.00 96 1020.7
20260901111403 54 217 1.0 4.0 0.00 0.00 0.00 96 1020.8
20260901111317 54 213 1.0 4.0 0.00 0.00 0.00 96 1020.7
20260901111303 54 212 1.0 4.0 0.00 0.00 0.00 96 1020.7
20260901111204 54 208 0.0 4.0 0.00 0.00 0.00 96 1020.7
20260901111003 53 213 1.0 4.0 0.00 0.00 0.00 96 1020.6
20260901110903 53 223 2.0 4.0 0.00 0.00 0.00 96 1020.8
20260901110803 54 234 1.0 4.0 0.00 0.00 0.00 96 1020.6
20260901110703 53 224 0.0 4.0 0.00 0.00 0.00 96 1020.8
20260901110605 53 227 1.0 4.0 0.00 0.00 0.00 96 1020.7
20260901110503 53 218 1.0 2.0 0.00 0.00 0.00 96 1020.7
20260901110403 53 196 0.0 2.0 0.00 0.00 0.00 96 1020.7
20260901110318 53 163 1.0 4.0 0.00 0.00 0.00 96 1020.7
20260901110303 53 159 1.0 4.0 0.00 0.00 0.00 96 1020.7
20260901110218 53 165 1.0 4.0 0.00 0.00 0.00 96 1020.7
20260901110203 53 163 1.0 4.0 0.00 0.00 0.00 96 1020.7
20260901110017 53 139 0.0 4.0 0.00 0.00 0.00 96 1020.7
20260901105903 53 151 1.0 4.0 0.00 0.00 0.00 96 1020.4
20260901105703 53 171 1.0 4.0 0.00 0.00 0.00 96 1020.6
20260901105603 53 158 1.0 6.0 0.00 0.00 0.00 96 1020.8
20260901105503 53 151 0.0 6.0 0.00 0.00 0.00 96 1020.8
20260901105403 53 148 1.0 6.0 0.00 0.00 0.00 96 1020.5
20260901105305 53 137 1.0 6.0 0.00 0.00 0.00 96 1020.8
20260901105203 53 143 1.0 6.0 0.00 0.00 0.00 96 1020.6
20260901105103 53 166 2.0 4.0 0.00 0.00 0.00 96 1020.6
20260901105003 53 177 1.0 6.0 0.00 0.00 0.00 96 1020.7
20260901104903 53 194 1.0 8.0 0.00 0.00 0.00 96 1020.6
20260901104803 53 197 2.0 8.0 0.00 0.00 0.00 96 1020.5
20260901104717 53 186 2.0 8.0 0.00 0.00 0.00 96 1020.8
20260901104703 53 182 2.0 8.0 0.00 0.00 0.00 96 1020.5
20260901104603 53 180 2.0 8.0 0.00 0.00 0.00 96 1020.5
20260901104403 53 163 3.0 8.0 0.00 0.00 0.00 96 1020.6
20260901104304 53 142 4.0 8.0 0.00 0.00 0.00 96 1020.7
20260901104203 53 146 1.0 7.0 0.00 0.00 0.00 96 1020.5
20260901104103 53 149 1.0 7.0 0.00 0.00 0.00 96 1020.6
20260901104017 53 149 2.0 7.0 0.00 0.00 0.00 96 1020.6
20260901104003 53 150 2.0 7.0 0.00 0.00 0.00 96 1020.6
20260901103903 53 147 2.0 7.0 0.00 0.00 0.00 96 1020.5
20260901103703 53 202 1.0 6.0 0.00 0.00 0.00 96 1020.6
20260901103603 53 202 0.0 6.0 0.00 0.00 0.00 96 1020.4
20260901103503 53 211 1.0 6.0 0.00 0.00 0.00 96 1020.5
20260901103403 53 209 2.0 6.0 0.00 0.00 0.00 96 1020.5
20260901103303 53 207 2.0 6.0 0.00 0.00 0.00 96 1020.4
20260901103203 53 200 2.0 6.0 0.00 0.00 0.00 96 1020.3
20260901103103 53 199 2.0 6.0 0.00 0.00 0.00 96 1020.4
20260901103005 53 177 2.0 6.0 0.00 0.00 0.00 96 1020.3
20260901102904 53 180 2.0 6.0 0.00 0.00 0.00 96 1020.4
20260901102803 53 199 2.0 6.0 0.00 0.00 0.00 96 1020.3
20260901102703 54 211 2.0 4.0 0.00 0.00 0.00 96 1020.2
20260901102603 54 210 2.0 4.0 0.00 0.00 0.00 96 1020.5
20260901102503 54 225 2.0 4.0 0.00 0.00 0.00 96 1020.3
20260901102403 54 231 2.0 4.0 0.00 0.00 0.00 96 1020.2
20260901102317 54 220 2.0 4.0 0.00 0.00 0.00 96 1020.3
20260901102306 54 215 2.0 4.0 0.00 0.00 0.00 96 1020.2
20260901102203 54 212 1.0 4.0 0.00 0.00 0.00 96 1020.3
20260901102003 54 229 0.0 7.0 0.00 0.00 0.00 96 1020.2
20260901101903 54 229 1.0 7.0 0.00 0.00 0.00 96 1020.5
20260901101803 54 233 1.0 7.0 0.00 0.00 0.00 96 1020.2
20260901101703 54 241 1.0 7.0 0.00 0.00 0.00 96 1020.4
20260901101603 54 221 3.0 7.0 0.00 0.00 0.00 96 1020.3
20260901101503 54 214 1.0 4.0 0.00 0.00 0.00 96 1020.5
20260901101417 54 210 0.0 4.0 0.00 0.00 0.00 96 1020.1
20260901101403 54 208 0.0 4.0 0.00 0.00 0.00 96 1020.1
20260901101303 54 202 1.0 4.0 0.00 0.00 0.00 96 1020.2
20260901101218 54 199 1.0 4.0 0.00 0.00 0.00 96 1020.1
20260901101103 53 213 1.0 4.0 0.00 0.00 0.00 96 1020.3
20260901100918 53 217 0.0 4.0 0.00 0.00 0.00 96 1020.0
20260901100903 53 218 0.0 4.0 0.00 0.00 0.00 96 1020.0
20260901100803 53 221 0.0 4.0 0.00 0.00 0.00 96 1020.0
20260901100603 53 223 2.0 4.0 0.00 0.00 0.00 96 1020.1
20260901100503 53 225 2.0 4.0 0.00 0.00 0.00 96 1019.9
20260901100403 53 227 1.0 4.0 0.00 0.00 0.00 96 1020.3
20260901100317 53 220 1.0 4.0 0.00 0.00 0.00 96 1020.2
20260901100303 53 218 1.0 4.0 0.00 0.00 0.00 96 1020.2
20260901100218 53 214 1.0 4.0 0.00 0.00 0.00 96 1019.9
20260901100203 53 216 1.0 4.0 0.00 0.00 0.00 96 1019.9
20260901095903 53 204 1.0 4.0 0.00 0.00 0.00 96 1020.3
20260901095818 53 204 1.0 4.0 0.00 0.00 0.00 96 1020.1
20260901095803 53 207 1.0 4.0 0.00 0.00 0.00 96 1020.1
20260901095703 54 208 1.0 4.0 0.00 0.00 0.00 96 1020.1
20260901095503 54 217 1.0 4.0 0.00 0.00 0.00 96 1019.8
20260901095403 53 211 1.0 4.0 0.00 0.00 0.00 96 1020.0
20260901095306 54 214 1.0 4.0 0.00 0.00 0.00 96 1019.9
20260901095203 54 211 1.0 4.0 0.00 0.00 0.00 96 1020.0
20260901095103 53 196 0.0 2.0 0.00 0.00 0.00 96 1020.1
20260901095003 53 209 0.0 2.0 0.00 0.00 0.00 96 1019.9
20260901094903 53 195 0.0 4.0 0.00 0.00 0.00 96 1019.7
20260901094803 53 196 0.0 4.0 0.00 0.00 0.00 96 1019.8
20260901094703 53 191 0.0 4.0 0.00 0.00 0.00 96 1019.8
20260901094603 53 187 0.0 4.0 0.00 0.00 0.00 96 1019.9
20260901094503 53 180 0.0 4.0 0.00 0.00 0.00 96 1019.7
20260901094403 53 177 1.0 4.0 0.00 0.00 0.00 96 1019.8
20260901094303 53 201 0.0 2.0 0.00 0.00 0.00 96 1019.8
20260901094203 53 211 0.0 2.0 0.00 0.00 0.00 96 1020.0
20260901094103 53 219 1.0 2.0 0.00 0.00 0.00 96 1019.9
20260901094003 53 224 0.0 2.0 0.00 0.00 0.00 96 1019.8
20260901093903 53 234 1.0 2.0 0.00 0.00 0.00 96 1019.8
20260901093803 53 229 1.0 2.0 0.00 0.00 0.00 96 1019.7
20260901093703 53 225 0.0 2.0 0.00 0.00 0.00 96 1019.7
20260901093617 53 229 0.0 2.0 0.00 0.00 0.00 96 1019.8
20260901093603 53 232 0.0 2.0 0.00 0.00 0.00 96 1019.8
20260901093503 53 240 0.0 2.0 0.00 0.00 0.00 96 1019.5
20260901093303 53 240 0.0 2.0 0.00 0.00 0.00 96 1019.4
20260901093203 53 242 0.0 2.0 0.00 0.00 0.00 96 1019.9
20260901093103 53 237 0.0 2.0 0.00 0.00 0.00 96 1019.5
20260901093003 53 234 0.0 2.0 0.00 0.00 0.00 96 1019.4
20260901092903 53 231 0.0 2.0 0.00 0.00 0.00 96 1019.4
20260901092818 53 239 0.0 2.0 0.00 0.00 0.00 96 1019.4
20260901092803 53 243 0.0 2.0 0.00 0.00 0.00 96 1019.4
20260901092703 53 243 0.0 2.0 0.00 0.00 0.00 96 1019.5
20260901092503 53 240 0.0 2.0 0.00 0.00 0.00 96 1019.3
20260901092418 53 236 2.0 2.0 0.00 0.00 0.00 96 1019.6
20260901092403 53 234 2.0 2.0 0.00 0.00 0.00 96 1019.6
20260901092305 53 228 0.0 2.0 0.00 0.00 0.00 96 1019.5
20260901092103 53 227 0.0 2.0 0.00 0.00 0.00 96 1019.4
20260901092003 53 229 0.0 2.0 0.00 0.00 0.00 96 1019.6
20260901091903 53 250 0.0 2.0 0.00 0.00 0.00 96 1019.4
20260901091818 54 245 0.0 2.0 0.00 0.00 0.00 96 1019.2
20260901091803 54 225 0.0 2.0 0.00 0.00 0.00 96 1019.2
20260901091716 54 188 0.0 2.0 0.00 0.00 0.00 96 1019.4
20260901091704 54 191 0.0 2.0 0.00 0.00 0.00 96 1019.4
20260901091403 54 207 0.0 2.0 0.00 0.00 0.00 96 1019.2
20260901091317 54 201 1.0 2.0 0.00 0.00 0.00 96 1019.1
20260901091303 54 204 1.0 2.0 0.00 0.00 0.00 96 1019.1
20260901091203 54 201 0.0 2.0 0.00 0.00 0.00 96 1019.2
20260901091003 54 190 0.0 2.0 0.00 0.00 0.00 96 1019.3
20260901090903 54 185 0.0 2.0 0.00 0.00 0.00 96 1019.1
20260901090803 54 200 1.0 4.0 0.00 0.00 0.00 96 1019.2
20260901090703 54 210 1.0 4.0 0.00 0.00 0.00 96 1019.3
20260901090603 54 211 1.0 4.0 0.00 0.00 0.00 96 1019.3
20260901090503 54 200 0.0 4.0 0.00 0.00 0.00 96 1019.5
20260901090403 54 197 1.0 4.0 0.00 0.00 0.00 96 1019.3
20260901090303 54 184 0.0 4.0 0.00 0.00 0.00 96 1019.1
20260901090203 54 188 0.0 4.0 0.00 0.00 0.00 96 1019.1
20260901090003 54 225 0.0 4.0 0.00 0.00 0.00 96 1019.0
20260901085903 54 212 1.0 4.0 0.00 0.00 0.00 96 1019.2
20260901085803 54 212 1.0 4.0 0.00 0.00 0.00 96 1019.3
20260901085703 54 222 0.0 4.0 0.00 0.00 0.00 96 1019.1
20260901085603 54 217 0.0 4.0 0.00 0.00 0.00 96 1019.3
20260901085504 54 202 2.0 7.0 0.00 0.00 0.00 96 1019.3
20260901085403 54 219 2.0 7.0 0.00 0.00 0.00 96 1019.3
20260901085305 54 209 1.0 7.0 0.00 0.00 0.00 96 1019.4
20260901085203 54 205 1.0 7.0 0.00 0.00 0.00 96 1019.5
20260901085103 54 202 2.0 7.0 0.00 0.00 0.00 96 1019.5
20260901085003 54 192 2.0 7.0 0.00 0.00 0.00 95 1019.2
20260901084903 54 185 3.0 7.0 0.00 0.00 0.00 95 1019.3
20260901084818 54 187 2.0 7.0 0.00 0.00 0.00 95 1019.2
20260901084803 54 191 2.0 7.0 0.00 0.00 0.00 95 1019.2
20260901084718 54 186 3.0 7.0 0.00 0.00 0.00 95 1019.5
20260901084708 54 182 2.0 7.0 0.00 0.00 0.00 95 1019.3
20260901084617 54 175 3.0 7.0 0.00 0.00 0.00 95 1019.1
20260901084418 54 183 1.0 6.0 0.00 0.00 0.00 95 1019.3
20260901084303 54 184 2.0 6.0 0.00 0.00 0.00 95 1019.5
20260901084103 54 186 2.0 6.0 0.00 0.00 0.00 95 1019.1
20260901084003 54 183 2.0 6.0 0.00 0.00 0.00 95 1019.3
20260901083917 54 207 2.0 7.0 0.00 0.00 0.00 95 1019.2
20260901083903 54 206 2.0 7.0 0.00 0.00 0.00 95 1019.4
20260901083603 54 171 2.0 7.0 0.00 0.00 0.00 95 1019.2
20260901083503 54 183 2.0 7.0 0.00 0.00 0.00 95 1019.3
20260901083403 54 176 2.0 6.0 0.00 0.00 0.00 95 1019.3
20260901083303 54 189 3.0 6.0 0.00 0.00 0.00 95 1019.4
20260901083203 54 186 1.0 4.0 0.00 0.00 0.00 95 1019.2
20260901083103 54 197 2.0 6.0 0.00 0.00 0.00 95 1019.3
20260901083018 54 196 1.0 6.0 0.00 0.00 0.00 95 1019.1
20260901083003 54 198 1.0 6.0 0.00 0.00 0.00 95 1019.1
20260901082903 54 198 2.0 6.0 0.00 0.00 0.00 95 1019.1
20260901082718 54 229 1.0 6.0 0.00 0.00 0.00 95 1019.2
20260901082703 54 231 2.0 6.0 0.00 0.00 0.00 95 1019.1
20260901082603 54 235 3.0 6.0 0.00 0.00 0.00 95 1019.2
20260901082517 54 240 1.0 6.0 0.00 0.00 0.00 95 1019.0
20260901082403 54 240 2.0 6.0 0.00 0.00 0.00 95 1019.4
20260901082203 54 232 2.0 4.0 0.00 0.00 0.00 95 1019.0
20260901082103 54 231 2.0 4.0 0.00 0.00 0.00 95 1018.9
20260901082003 54 231 1.0 4.0 0.00 0.00 0.00 95 1019.2
20260901081903 54 234 2.0 4.0 0.00 0.00 0.00 95 1018.9
20260901081818 54 235 2.0 4.0 0.00 0.00 0.00 95 1018.9
20260901081803 54 231 2.0 4.0 0.00 0.00 0.00 95 1018.9
20260901081718 54 226 2.0 4.0 0.00 0.00 0.00 95 1018.9
20260901081703 54 229 2.0 4.0 0.00 0.00 0.00 95 1018.9
20260901081517 55 222 2.0 2.0 0.00 0.00 0.00 95 1018.8
20260901081418 55 209 1.0 2.0 0.00 0.00 0.00 95 1018.9
20260901081403 55 207 1.0 2.0 0.00 0.00 0.00 95 1018.9
20260901081317 55 201 1.0 2.0 0.00 0.00 0.00 95 1018.9
20260901081003 55 214 0.0 4.0 0.00 0.00 0.00 94 1018.9
20260901080903 55 217 1.0 4.0 0.00 0.00 0.00 94 1019.2
20260901080803 55 224 1.0 4.0 0.00 0.00 0.00 94 1019.1
20260901080703 55 224 1.0 2.0 0.00 0.00 0.00 94 1019.1
20260901080603 55 221 1.0 2.0 0.00 0.00 0.00 94 1018.7
20260901080503 55 226 0.0 2.0 0.00 0.00 0.00 94 1019.0
20260901080403 55 223 0.0 2.0 0.00 0.00 0.00 94 1019.0
20260901080303 55 221 1.0 2.0 0.00 0.00 0.00 94 1018.8
20260901080003 55 226 1.0 2.0 0.00 0.00 0.00 94 1019.0
20260901075903 55 230 0.0 2.0 0.00 0.00 0.00 94 1019.0
20260901075803 55 225 1.0 2.0 0.00 0.00 0.00 94 1018.8
20260901075703 55 225 0.0 2.0 0.00 0.00 0.00 94 1019.1
20260901075603 55 225 0.0 2.0 0.00 0.00 0.00 94 1019.0
20260901075503 55 229 0.0 2.0 0.00 0.00 0.00 94 1019.2
20260901075418 55 236 0.0 2.0 0.00 0.00 0.00 94 1019.0
20260901075403 55 235 0.0 2.0 0.00 0.00 0.00 94 1019.0
20260901075307 55 223 0.0 2.0 0.00 0.00 0.00 94 1018.8
20260901075103 55 229 0.0 4.0 0.00 0.00 0.00 94 1018.9
20260901075003 55 235 1.0 4.0 0.00 0.00 0.00 94 1019.0
20260901074903 55 233 0.0 4.0 0.00 0.00 0.00 94 1018.8
20260901074803 55 238 1.0 4.0 0.00 0.00 0.00 94 1019.1
20260901074704 55 243 1.0 4.0 0.00 0.00 0.00 94 1018.8
20260901074603 55 239 2.0 4.0 0.00 0.00 0.00 94 1018.8
20260901074503 56 227 1.0 2.0 0.00 0.00 0.00 94 1018.9
20260901074403 55 219 1.0 2.0 0.00 0.00 0.00 94 1018.7
20260901074303 56 241 1.0 4.0 0.00 0.00 0.00 94 1018.6
20260901074203 56 225 1.0 4.0 0.00 0.00 0.00 94 1018.5
20260901074103 55 225 0.0 4.0 0.00 0.00 0.00 94 1018.7
20260901074003 56 229 0.0 4.0 0.00 0.00 0.00 94 1018.9
20260901073903 56 223 1.0 6.0 0.00 0.00 0.00 94 1018.9
20260901073803 56 204 1.0 6.0 0.00 0.00 0.00 94 1018.8
20260901073703 56 208 0.0 6.0 0.00 0.00 0.00 94 1018.8
20260901073603 56 210 0.0 6.0 0.00 0.00 0.00 94 1018.9
20260901073403 56 212 1.0 6.0 0.00 0.00 0.00 94 1019.0
20260901073303 56 214 0.0 6.0 0.00 0.00 0.00 94 1018.9
20260901073203 56 216 2.0 6.0 0.00 0.00 0.00 94 1018.8
20260901073103 56 219 2.0 6.0 0.00 0.00 0.00 94 1018.7
20260901073003 56 217 3.0 6.0 0.00 0.00 0.00 94 1018.5
20260901072903 56 236 1.0 4.0 0.00 0.00 0.00 94 1018.8
20260901072803 56 236 0.0 4.0 0.00 0.00 0.00 94 1018.8
20260901072703 56 230 1.0 4.0 0.00 0.00 0.00 94 1018.7
20260901072603 56 204 1.0 4.0 0.00 0.00 0.00 94 1018.7
20260901072517 56 186 0.0 4.0 0.00 0.00 0.00 94 1018.9
20260901072503 56 185 0.0 4.0 0.00 0.00 0.00 94 1018.9
20260901072403 56 178 1.0 4.0 0.00 0.00 0.00 94 1019.1
20260901072318 56 168 1.0 4.0 0.00 0.00 0.00 94 1019.0
20260901072203 56 172 3.0 4.0 0.00 0.00 0.00 94 1019.0
20260901072018 56 183 2.0 6.0 0.00 0.00 0.00 94 1019.0
20260901072003 56 190 2.0 6.0 0.00 0.00 0.00 94 1019.0
20260901071904 56 205 1.0 6.0 0.00 0.00 0.00 94 1019.0
20260901071703 56 204 2.0 6.0 0.00 0.00 0.00 94 1019.1
20260901071603 56 208 2.0 6.0 0.00 0.00 0.00 94 1018.8
20260901071503 56 210 2.0 4.0 0.00 0.00 0.00 94 1019.0
20260901071417 56 212 2.0 4.0 0.00 0.00 0.00 94 1019.0
20260901071403 56 210 2.0 4.0 0.00 0.00 0.00 94 1019.0
20260901071303 56 211 1.0 4.0 0.00 0.00 0.00 94 1019.0
20260901071217 56 224 2.0 4.0 0.00 0.00 0.00 94 1018.9
20260901071103 56 244 2.0 4.0 0.00 0.00 0.00 94 1019.0
20260901070903 56 211 1.0 4.0 0.00 0.00 0.00 94 1019.0
20260901070817 56 211 1.0 4.0 0.00 0.00 0.00 94 1019.0
20260901070803 56 212 1.0 4.0 0.00 0.00 0.00 94 1019.0
20260901070703 56 208 1.0 4.0 0.00 0.00 0.00 94 1019.1
20260901070503 56 222 1.0 4.0 0.00 0.00 0.00 94 1019.0
20260901070403 56 241 2.0 4.0 0.00 0.00 0.00 94 1019.0
20260901070303 56 243 1.0 4.0 0.00 0.00 0.00 94 1018.9
20260901070203 56 239 2.0 4.0 0.00 0.00 0.00 94 1019.0
20260901070103 56 234 2.0 4.0 0.00 0.00 0.00 94 1019.1
20260901070003 56 234 1.0 4.0 0.00 0.00 0.00 94 1019.0
20260901065903 56 218 2.0 4.0 0.00 0.00 0.00 94 1018.9
20260901065803 56 217 1.0 4.0 0.00 0.00 0.00 94 1019.1
20260901065703 56 199 1.0 4.0 0.00 0.00 0.00 94 1019.1
20260901065603 56 185 1.0 4.0 0.00 0.00 0.00 94 1019.3
20260901065517 56 183 2.0 4.0 0.00 0.00 0.00 94 1019.1
20260901065503 56 178 1.0 4.0 0.00 0.00 0.00 94 1018.9
20260901065417 56 180 2.0 4.0 0.00 0.00 0.00 94 1019.2
20260901065403 56 178 2.0 4.0 0.00 0.00 0.00 94 1019.2
20260901065103 56 196 2.0 4.0 0.00 0.00 0.00 94 1019.1
20260901065018 56 196 1.0 4.0 0.00 0.00 0.00 94 1019.0
20260901065003 56 204 1.0 4.0 0.00 0.00 0.00 94 1019.0
20260901064903 56 224 2.0 4.0 0.00 0.00 0.00 94 1019.1
20260901064718 56 234 1.0 4.0 0.00 0.00 0.00 94 1019.0
20260901064703 56 230 1.0 4.0 0.00 0.00 0.00 94 1019.2
20260901064603 56 227 2.0 4.0 0.00 0.00 0.00 94 1019.3
20260901064403 56 221 2.0 4.0 0.00 0.00 0.00 94 1019.3
20260901064303 56 223 2.0 4.0 0.00 0.00 0.00 93 1019.0
20260901064204 56 238 1.0 4.0 0.00 0.00 0.00 93 1019.2
20260901064103 56 241 2.0 4.0 0.00 0.00 0.00 93 1019.4
20260901064003 56 241 2.0 4.0 0.00 0.00 0.00 93 1019.1
20260901063918 56 248 1.0 4.0 0.00 0.00 0.00 93 1019.4
20260901063903 56 250 2.0 4.0 0.00 0.00 0.00 93 1019.3
20260901063803 56 244 2.0 4.0 0.00 0.00 0.00 93 1018.9
20260901063603 56 223 2.0 4.0 0.00 0.00 0.00 93 1018.9
20260901063503 56 226 2.0 4.0 0.00 0.00 0.00 93 1019.1
20260901063318 56 226 2.0 4.0 0.00 0.00 0.00 93 1019.0
20260901063303 56 224 2.0 4.0 0.00 0.00 0.00 93 1019.0
20260901063203 56 214 2.0 4.0 0.00 0.00 0.00 93 1018.9
20260901063003 56 220 2.0 4.0 0.00 0.00 0.00 93 1018.9
20260901062903 56 206 2.0 4.0 0.00 0.00 0.00 93 1018.9
20260901062803 56 214 2.0 4.0 0.00 0.00 0.00 93 1018.9
20260901062703 56 231 2.0 4.0 0.00 0.00 0.00 93 1018.9
20260901062603 56 221 2.0 4.0 0.00 0.00 0.00 93 1018.8
20260901062503 56 209 1.0 4.0 0.00 0.00 0.00 93 1019.1
20260901062403 56 199 2.0 4.0 0.00 0.00 0.00 93 1018.9
20260901062309 56 183 2.0 4.0 0.00 0.00 0.00 93 1018.9
20260901062203 56 174 2.0 4.0 0.00 0.00 0.00 93 1019.0
20260901062103 56 173 2.0 4.0 0.00 0.00 0.00 93 1018.9
20260901062003 57 185 1.0 4.0 0.00 0.00 0.00 93 1018.7
20260901061903 57 195 2.0 4.0 0.00 0.00 0.00 93 1018.9
20260901061803 56 210 2.0 4.0 0.00 0.00 0.00 93 1018.7
20260901061703 57 215 2.0 4.0 0.00 0.00 0.00 93 1019.0
20260901061603 57 207 2.0 4.0 0.00 0.00 0.00 93 1018.9
20260901061503 57 212 1.0 4.0 0.00 0.00 0.00 93 1018.9
20260901061403 57 203 1.0 6.0 0.00 0.00 0.00 93 1019.2
20260901061303 57 196 1.0 6.0 0.00 0.00 0.00 93 1018.9
20260901061203 57 199 2.0 6.0 0.00 0.00 0.00 93 1018.9
20260901061117 57 216 2.0 6.0 0.00 0.00 0.00 93 1018.8
20260901061003 57 188 2.0 6.0 0.00 0.00 0.00 93 1019.1
20260901060803 57 230 0.0 2.0 0.00 0.00 0.00 93 1019.0
20260901060717 57 225 1.0 2.0 0.00 0.00 0.00 93 1018.9
20260901060703 57 224 1.0 2.0 0.00 0.00 0.00 93 1019.0
20260901060603 56 222 0.0 2.0 0.00 0.00 0.00 93 1019.0
20260901060403 57 221 0.0 6.0 0.00 0.00 0.00 93 1019.0
20260901060303 57 210 1.0 6.0 0.00 0.00 0.00 93 1019.1
20260901060203 57 209 1.0 6.0 0.00 0.00 0.00 93 1019.2
20260901060103 57 209 1.0 6.0 0.00 0.00 0.00 93 1019.0
20260901060003 57 208 2.0 6.0 0.00 0.00 0.00 93 1019.0
20260901055903 57 192 1.0 4.0 0.00 0.00 0.00 93 1019.1
20260901055703 57 203 2.0 4.0 0.00 0.00 0.00 93 1019.1
20260901055603 57 208 2.0 4.0 0.00 0.00 0.00 93 1019.3
20260901055503 57 213 2.0 4.0 0.00 0.00 0.00 93 1019.1
20260901055403 57 225 2.0 4.0 0.00 0.00 0.00 93 1019.2
20260901055306 57 227 2.0 4.0 0.00 0.00 0.00 93 1019.4
20260901055203 57 235 2.0 4.0 0.00 0.00 0.00 93 1019.3
20260901055103 57 234 1.0 4.0 0.00 0.00 0.00 93 1019.1
20260901055003 57 233 1.0 4.0 0.00 0.00 0.00 93 1019.3
20260901054903 57 232 2.0 4.0 0.00 0.00 0.00 93 1019.3
20260901054803 57 220 2.0 4.0 0.00 0.00 0.00 93 1019.2
20260901054703 57 219 2.0 4.0 0.00 0.00 0.00 93 1019.1
20260901054603 57 219 2.0 4.0 0.00 0.00 0.00 93 1019.2
20260901054503 57 224 2.0 4.0 0.00 0.00 0.00 93 1019.2
20260901054403 57 224 2.0 4.0 0.00 0.00 0.00 93 1019.2
20260901054303 57 233 2.0 4.0 0.00 0.00 0.00 93 1019.2
20260901054203 57 226 2.0 4.0 0.00 0.00 0.00 93 1019.1
20260901054117 57 232 2.0 4.0 0.00 0.00 0.00 93 1019.1
20260901054103 57 236 2.0 4.0 0.00 0.00 0.00 93 1019.1
20260901054017 57 235 2.0 4.0 0.00 0.00 0.00 93 1019.0
20260901054003 57 233 2.0 4.0 0.00 0.00 0.00 93 1019.0
20260901053918 57 217 1.0 4.0 0.00 0.00 0.00 93 1019.0
20260901053603 57 176 2.0 4.0 0.00 0.00 0.00 93 1019.0
20260901053503 57 183 1.0 4.0 0.00 0.00 0.00 93 1019.0
20260901053403 57 210 2.0 4.0 0.00 0.00 0.00 93 1018.9
20260901053308 57 221 2.0 4.0 0.00 0.00 0.00 93 1019.1
20260901053203 57 232 1.0 4.0 0.00 0.00 0.00 93 1018.9
20260901053103 57 224 2.0 4.0 0.00 0.00 0.00 93 1019.1
20260901053003 57 214 2.0 4.0 0.00 0.00 0.00 93 1019.1
20260901052918 57 203 2.0 4.0 0.00 0.00 0.00 93 1019.1
20260901052903 57 199 2.0 4.0 0.00 0.00 0.00 93 1019.1
20260901052803 57 206 2.0 4.0 0.00 0.00 0.00 93 1019.2
20260901052618 57 204 2.0 4.0 0.00 0.00 0.00 93 1019.1
20260901052603 57 210 2.0 4.0 0.00 0.00 0.00 93 1019.1
20260901052503 57 213 2.0 4.0 0.00 0.00 0.00 93 1019.0
20260901052306 57 221 2.0 6.0 0.00 0.00 0.00 93 1018.9
20260901052203 57 208 2.0 6.0 0.00 0.00 0.00 93 1019.3
20260901052103 57 190 1.0 6.0 0.00 0.00 0.00 93 1019.2
20260901052004 57 213 1.0 6.0 0.00 0.00 0.00 93 1019.1
20260901051903 57 190 1.0 4.0 0.00 0.00 0.00 93 1019.4
20260901051818 57 214 0.0 4.0 0.00 0.00 0.00 93 1019.1
20260901051803 57 219 0.0 4.0 0.00 0.00 0.00 93 1019.1
20260901051703 57 220 2.0 6.0 0.00 0.00 0.00 93 1019.0
20260901051503 57 227 0.0 6.0 0.00 0.00 0.00 93 1019.2
20260901051403 57 233 0.0 6.0 0.00 0.00 0.00 93 1019.4
20260901051303 57 222 1.0 6.0 0.00 0.00 0.00 93 1019.2
20260901051203 57 229 3.0 6.0 0.00 0.00 0.00 93 1019.3
20260901051103 57 230 2.0 4.0 0.00 0.00 0.00 93 1019.1
20260901051003 57 225 2.0 4.0 0.00 0.00 0.00 93 1019.2
20260901050903 57 211 2.0 4.0 0.00 0.00 0.00 93 1019.3
20260901050803 57 217 3.0 4.0 0.00 0.00 0.00 93 1019.0
20260901050703 57 204 1.0 2.0 0.00 0.00 0.00 93 1019.4
20260901050618 57 206 1.0 4.0 0.00 0.00 0.00 93 1019.4
20260901050603 57 209 1.0 4.0 0.00 0.00 0.00 93 1019.4
20260901050503 57 214 1.0 4.0 0.00 0.00 0.00 93 1019.1
20260901050303 57 214 1.0 4.0 0.00 0.00 0.00 93 1019.3
20260901050218 57 220 1.0 4.0 0.00 0.00 0.00 93 1019.3
20260901050203 57 221 1.0 4.0 0.00 0.00 0.00 93 1019.3
20260901050103 57 227 2.0 4.0 0.00 0.00 0.00 93 1019.3
20260901045903 57 232 1.0 4.0 0.00 0.00 0.00 93 1019.1
20260901045803 57 231 0.0 4.0 0.00 0.00 0.00 93 1019.2
20260901045703 57 230 0.0 4.0 0.00 0.00 0.00 93 1019.2
20260901045603 58 221 2.0 4.0 0.00 0.00 0.00 93 1019.4
20260901045503 57 224 2.0 4.0 0.00 0.00 0.00 93 1019.5
20260901045403 57 230 2.0 4.0 0.00 0.00 0.00 93 1019.4
20260901045317 58 228 3.0 4.0 0.00 0.00 0.00 93 1019.4
20260901045306 58 227 3.0 4.0 0.00 0.00 0.00 93 1019.4
20260901045203 58 221 1.0 4.0 0.00 0.00 0.00 93 1019.4
20260901045003 58 239 2.0 4.0 0.00 0.00 0.00 93 1019.3
20260901044917 58 236 2.0 4.0 0.00 0.00 0.00 92 1019.2
20260901044903 58 239 2.0 4.0 0.00 0.00 0.00 92 1019.2
20260901044803 58 239 0.0 4.0 0.00 0.00 0.00 92 1019.2
20260901044603 58 236 2.0 4.0 0.00 0.00 0.00 92 1019.4
20260901044508 58 230 2.0 4.0 0.00 0.00 0.00 92 1019.4
20260901044403 58 228 2.0 4.0 0.00 0.00 0.00 92 1019.4
20260901044303 58 231 2.0 4.0 0.00 0.00 0.00 92 1019.2
20260901044203 58 235 2.0 4.0 0.00 0.00 0.00 92 1019.3
20260901044103 58 228 2.0 4.0 0.00 0.00 0.00 92 1019.4
20260901044003 58 229 2.0 4.0 0.00 0.00 0.00 92 1019.4
20260901043903 58 232 2.0 4.0 0.00 0.00 0.00 92 1019.4
20260901043803 58 222 3.0 4.0 0.00 0.00 0.00 92 1019.3
20260901043703 58 223 2.0 4.0 0.00 0.00 0.00 92 1019.5
20260901043603 58 227 2.0 4.0 0.00 0.00 0.00 92 1019.3
20260901043503 58 225 3.0 4.0 0.00 0.00 0.00 92 1019.3
20260901043403 58 216 2.0 4.0 0.00 0.00 0.00 92 1019.5
20260901043303 58 222 2.0 4.0 0.00 0.00 0.00 92 1019.5
20260901043203 58 223 2.0 4.0 0.00 0.00 0.00 92 1019.3
20260901043103 58 227 2.0 4.0 0.00 0.00 0.00 92 1019.2
20260901043017 58 230 2.0 4.0 0.00 0.00 0.00 92 1019.2
20260901043003 58 233 2.0 4.0 0.00 0.00 0.00 92 1019.2
20260901042917 58 229 2.0 4.0 0.00 0.00 0.00 92 1019.4
20260901042903 58 227 2.0 4.0 0.00 0.00 0.00 92 1019.4
20260901042603 58 214 0.0 4.0 0.00 0.00 0.00 92 1019.2
20260901042503 59 212 1.0 4.0 0.00 0.00 0.00 92 1019.3
20260901042403 59 218 2.0 4.0 0.00 0.00 0.00 92 1018.9
20260901042306 59 210 1.0 2.0 0.00 0.00 0.00 92 1019.1
20260901042203 59 219 1.0 2.0 0.00 0.00 0.00 91 1018.9
20260901042103 59 219 1.0 2.0 0.00 0.00 0.00 91 1019.1
20260901042003 59 218 1.0 2.0 0.00 0.00 0.00 91 1019.1
20260901041903 59 217 1.0 2.0 0.00 0.00 0.00 91 1019.2
20260901041703 59 242 1.0 2.0 0.00 0.00 0.00 91 1019.2
20260901041603 59 249 2.0 2.0 0.00 0.00 0.00 91 1019.1
20260901041503 59 251 1.0 2.0 0.00 0.00 0.00 91 1019.2
20260901041418 59 252 1.0 2.0 0.00 0.00 0.00 91 1019.2
20260901041403 59 251 1.0 2.0 0.00 0.00 0.00 91 1019.2
20260901041303 59 243 2.0 2.0 0.00 0.00 0.00 91 1019.2
20260901041103 59 222 2.0 4.0 0.00 0.00 0.00 91 1019.2
20260901041003 59 216 0.0 4.0 0.00 0.00 0.00 91 1019.4
20260901040903 59 215 1.0 4.0 0.00 0.00 0.00 91 1019.3
20260901040803 59 218 1.0 4.0 0.00 0.00 0.00 91 1019.2
20260901040703 59 210 2.0 4.0 0.00 0.00 0.00 91 1019.2
20260901040603 59 215 1.0 4.0 0.00 0.00 0.00 91 1019.3
20260901040503 59 222 0.0 4.0 0.00 0.00 0.00 91 1019.1
20260901040418 59 227 2.0 4.0 0.00 0.00 0.00 90 1019.0
20260901040403 59 228 2.0 4.0 0.00 0.00 0.00 90 1019.0
20260901040303 59 228 0.0 4.0 0.00 0.00 0.00 90 1019.0
20260901040103 59 236 2.0 4.0 0.00 0.00 0.00 90 1019.0
20260901040003 60 236 1.0 2.0 0.00 0.00 0.00 90 1019.4
20260901035917 60 223 1.0 4.0 0.00 0.00 0.00 90 1019.3
20260901035903 60 219 1.0 4.0 0.00 0.00 0.00 90 1019.1
20260901035803 60 212 2.0 4.0 0.00 0.00 0.00 90 1019.3
20260901035603 60 228 0.0 7.0 0.00 0.00 0.00 90 1019.1
20260901035503 60 228 2.0 7.0 0.00 0.00 0.00 90 1019.6
20260901035403 60 233 2.0 7.0 0.00 0.00 0.00 90 1019.3
20260901035305 60 239 3.0 7.0 0.00 0.00 0.00 90 1019.4
20260901035203 60 238 3.0 7.0 0.00 0.00 0.00 90 1019.4
20260901035103 60 231 2.0 4.0 0.00 0.00 0.00 89 1019.5
20260901035003 60 234 2.0 2.0 0.00 0.00 0.00 90 1019.4
20260901034903 60 234 1.0 2.0 0.00 0.00 0.00 89 1019.4
20260901034803 60 229 2.0 2.0 0.00 0.00 0.00 90 1019.2
20260901034703 60 225 1.0 2.0 0.00 0.00 0.00 90 1019.5
20260901034603 60 0 0.0 0.0 0.00 0.00 0.00 90 1019.4
20260901034503 60 0 0.0 0.0 0.00 0.00 0.00 90 1019.4
20260901034403 60 0 0.0 0.0 0.00 0.00 0.00 90 1019.3
20260901034303 60 39 0.0 2.0 0.00 0.00 0.00 90 1019.3
20260901034217 60 32 0.0 2.0 0.00 0.00 0.00 90 1019.4
20260901034203 60 31 0.0 2.0 0.00 0.00 0.00 90 1019.4
20260901034103 60 39 0.0 2.0 0.00 0.00 0.00 90 1019.3
20260901033903 60 52 0.0 2.0 0.00 0.00 0.00 90 1019.1
20260901033803 60 56 1.0 2.0 0.00 0.00 0.00 90 1019.4
20260901033703 60 75 1.0 2.0 0.00 0.00 0.00 90 1019.5
20260901033603 60 81 0.0 2.0 0.00 0.00 0.00 90 1019.2
20260901033503 60 63 0.0 2.0 0.00 0.00 0.00 90 1019.3
20260901033403 61 45 0.0 2.0 0.00 0.00 0.00 90 1019.4
20260901033303 60 45 0.0 2.0 0.00 0.00 0.00 90 1019.5
20260901033103 61 360 0.0 2.0 0.00 0.00 0.00 90 1019.2
20260901033003 61 0 0.0 0.0 0.00 0.00 0.00 90 1019.4
20260901032903 60 0 0.0 0.0 0.00 0.00 0.00 90 1019.5
20260901032803 61 0 0.0 0.0 0.00 0.00 0.00 90 1019.4
20260901032703 61 0 0.0 0.0 0.00 0.00 0.00 90 1019.5
20260901032603 60 0 0.0 0.0 0.00 0.00 0.00 90 1019.5
20260901032503 60 0 0.0 0.0 0.00 0.00 0.00 90 1019.4
20260901032403 60 0 0.0 0.0 0.00 0.00 0.00 90 1019.3
20260901032203 60 0 0.0 0.0 0.00 0.00 0.00 90 1019.4
20260901032103 60 0 0.0 0.0 0.00 0.00 0.00 90 1019.5
20260901032003 60 0 0.0 0.0 0.00 0.00 0.00 90 1019.5
20260901031903 60 0 0.0 0.0 0.00 0.00 0.00 90 1019.2
20260901031803 60 0 0.0 0.0 0.00 0.00 0.00 90 1019.2
20260901031703 60 0 0.0 0.0 0.00 0.00 0.00 90 1019.1
20260901031604 60 0 0.0 0.0 0.00 0.00 0.00 90 1019.1
20260901031517 60 0 0.0 0.0 0.00 0.00 0.00 90 1019.6
20260901031504 60 0 0.0 0.0 0.00 0.00 0.00 90 1019.4
20260901031403 60 0 0.0 0.0 0.00 0.00 0.00 90 1019.5
20260901031203 60 0 0.0 0.0 0.00 0.00 0.00 90 1019.2
20260901031103 60 0 0.0 0.0 0.00 0.00 0.00 90 1019.3
20260901031003 60 0 0.0 0.0 0.00 0.00 0.00 90 1019.3
20260901030903 60 0 0.0 0.0 0.00 0.00 0.00 90 1019.5
20260901030803 60 0 0.0 0.0 0.00 0.00 0.00 90 1019.4
20260901030603 60 0 0.0 0.0 0.00 0.00 0.00 90 1019.4
20260901030503 60 0 0.0 0.0 0.00 0.00 0.00 90 1019.3
20260901030403 60 0 0.0 0.0 0.00 0.00 0.00 90 1019.3
20260901030303 60 0 0.0 0.0 0.00 0.00 0.00 90 1019.2
20260901030203 60 0 0.0 0.0 0.00 0.00 0.00 90 1019.3
20260901030103 60 0 0.0 0.0 0.00 0.00 0.00 90 1019.1
20260901030003 60 180 0.0 2.0 0.00 0.00 0.00 90 1019.3
20260901025903 60 180 0.0 2.0 0.00 0.00 0.00 90 1019.3
20260901025803 60 180 0.0 2.0 0.00 0.00 0.00 90 1019.3
20260901025703 60 180 0.0 2.0 0.00 0.00 0.00 90 1019.4
20260901025603 60 180 0.0 2.0 0.00 0.00 0.00 90 1019.3
20260901025503 60 185 0.0 2.0 0.00 0.00 0.00 90 1019.2
20260901025403 60 211 0.0 2.0 0.00 0.00 0.00 90 1019.3
20260901025306 60 225 0.0 2.0 0.00 0.00 0.00 90 1019.4
20260901025203 60 230 0.0 2.0 0.00 0.00 0.00 90 1019.2
20260901025103 60 219 0.0 2.0 0.00 0.00 0.00 90 1019.2
20260901025003 60 233 1.0 2.0 0.00 0.00 0.00 90 1019.2
20260901024903 60 244 0.0 2.0 0.00 0.00 0.00 90 1019.5
20260901024803 60 245 1.0 2.0 0.00 0.00 0.00 90 1019.2
20260901024703 60 249 1.0 2.0 0.00 0.00 0.00 90 1019.0
20260901024617 60 273 1.0 2.0 0.00 0.00 0.00 90 1019.2
20260901024603 60 279 1.0 2.0 0.00 0.00 0.00 90 1019.2
20260901024503 60 258 0.0 2.0 0.00 0.00 0.00 90 1019.2
20260901024303 60 199 0.0 2.0 0.00 0.00 0.00 90 1019.1
20260901024203 60 188 1.0 2.0 0.00 0.00 0.00 90 1019.3
20260901024103 60 194 0.0 2.0 0.00 0.00 0.00 90 1019.0
20260901024003 60 199 1.0 2.0 0.00 0.00 0.00 90 1019.2
20260901023903 60 197 0.0 2.0 0.00 0.00 0.00 90 1019.0
20260901023803 60 204 0.0 2.0 0.00 0.00 0.00 90 1019.0
20260901023703 60 205 0.0 2.0 0.00 0.00 0.00 90 1019.2
20260901023603 60 206 1.0 2.0 0.00 0.00 0.00 90 1019.1
20260901023503 60 212 2.0 2.0 0.00 0.00 0.00 90 1019.2
20260901023403 60 225 1.0 2.0 0.00 0.00 0.00 90 1019.0
20260901023303 60 225 0.0 2.0 0.00 0.00 0.00 90 1019.1
20260901023217 60 225 0.0 2.0 0.00 0.00 0.00 90 1019.2
20260901023103 60 225 0.0 2.0 0.00 0.00 0.00 90 1018.9
20260901022903 60 209 1.0 2.0 0.00 0.00 0.00 90 1019.3
20260901022803 60 199 1.0 2.0 0.00 0.00 0.00 90 1019.3
20260901022703 60 205 0.0 2.0 0.00 0.00 0.00 90 1019.1
20260901022603 60 202 1.0 2.0 0.00 0.00 0.00 90 1019.1
20260901022503 60 207 0.0 2.0 0.00 0.00 0.00 90 1019.1
20260901022403 60 213 1.0 2.0 0.00 0.00 0.00 90 1019.1
20260901022305 60 211 1.0 2.0 0.00 0.00 0.00 90 1019.1
20260901022203 60 198 1.0 2.0 0.00 0.00 0.00 89 1019.0
20260901022103 60 202 1.0 2.0 0.00 0.00 0.00 89 1019.1
20260901022003 60 186 0.0 2.0 0.00 0.00 0.00 89 1019.1
20260901021903 60 177 1.0 4.0 0.00 0.00 0.00 89 1019.2
20260901021803 60 164 1.0 4.0 0.00 0.00 0.00 89 1019.5
20260901021718 60 158 1.0 4.0 0.00 0.00 0.00 89 1019.2
20260901021703 60 154 1.0 4.0 0.00 0.00 0.00 89 1019.2
20260901021616 60 151 2.0 4.0 0.00 0.00 0.00 89 1018.9
20260901021603 60 150 2.0 4.0 0.00 0.00 0.00 89 1018.9
20260901021303 60 203 0.0 2.0 0.00 0.00 0.00 89 1019.1
20260901021203 60 217 0.0 2.0 0.00 0.00 0.00 89 1019.4
20260901021103 60 230 2.0 2.0 0.00 0.00 0.00 89 1019.3
20260901021003 60 228 1.0 2.0 0.00 0.00 0.00 89 1019.2
20260901020917 61 230 1.0 4.0 0.00 0.00 0.00 89 1019.3
20260901020903 61 232 1.0 4.0 0.00 0.00 0.00 89 1019.3
20260901020803 61 237 1.0 4.0 0.00 0.00 0.00 89 1019.3
20260901020603 61 237 1.0 4.0 0.00 0.00 0.00 88 1019.1
20260901020503 61 235 2.0 4.0 0.00 0.00 0.00 88 1019.1
20260901020403 61 235 2.0 4.0 0.00 0.00 0.00 88 1019.2
20260901020303 61 234 2.0 4.0 0.00 0.00 0.00 88 1019.1
20260901020203 61 232 2.0 4.0 0.00 0.00 0.00 88 1019.2
20260901020018 61 215 2.0 2.0 0.00 0.00 0.00 88 1019.1
20260901020003 61 214 2.0 2.0 0.00 0.00 0.00 88 1019.1
20260901015919 61 204 1.0 2.0 0.00 0.00 0.00 88 1019.0
20260901015903 62 204 1.0 2.0 0.00 0.00 0.00 87 1019.0
20260901015603 62 205 2.0 2.0 0.00 0.00 0.00 87 1018.9
20260901015503 62 223 1.0 2.0 0.00 0.00 0.00 87 1019.1
20260901015403 62 238 1.0 2.0 0.00 0.00 0.00 87 1019.0
20260901015305 62 237 1.0 2.0 0.00 0.00 0.00 87 1019.1
20260901015203 62 240 1.0 2.0 0.00 0.00 0.00 87 1018.9
20260901015103 62 247 1.0 2.0 0.00 0.00 0.00 86 1019.2
20260901015003 62 247 0.0 2.0 0.00 0.00 0.00 86 1019.0
20260901014903 62 247 0.0 2.0 0.00 0.00 0.00 86 1019.2
20260901014803 62 203 0.0 2.0 0.00 0.00 0.00 86 1019.2
20260901014703 62 128 0.0 2.0 0.00 0.00 0.00 86 1019.1
20260901014603 62 119 0.0 2.0 0.00 0.00 0.00 86 1019.3
20260901014508 62 116 0.0 4.0 0.00 0.00 0.00 86 1019.0
20260901014403 62 115 0.0 4.0 0.00 0.00 0.00 86 1019.1
20260901014303 62 112 0.0 4.0 0.00 0.00 0.00 86 1019.0
20260901014203 62 112 1.0 4.0 0.00 0.00 0.00 86 1018.9
20260901014103 62 112 1.0 4.0 0.00 0.00 0.00 86 1018.8
20260901014003 62 112 2.0 4.0 0.00 0.00 0.00 86 1019.0
20260901013903 62 103 0.0 2.0 0.00 0.00 0.00 86 1019.2
20260901013803 62 100 0.0 2.0 0.00 0.00 0.00 86 1018.9
20260901013703 62 91 0.0 2.0 0.00 0.00 0.00 86 1019.0
20260901013618 62 85 0.0 2.0 0.00 0.00 0.00 86 1019.0
20260901013603 62 82 0.0 2.0 0.00 0.00 0.00 86 1019.0
20260901013503 63 85 0.0 4.0 0.00 0.00 0.00 86 1018.8
20260901013303 63 94 0.0 4.0 0.00 0.00 0.00 86 1018.9
20260901013203 63 98 1.0 4.0 0.00 0.00 0.00 86 1018.9
20260901013103 63 103 1.0 4.0 0.00 0.00 0.00 86 1018.8
20260901013003 63 107 2.0 4.0 0.00 0.00 0.00 86 1018.9
20260901012903 63 110 2.0 4.0 0.00 0.00 0.00 86 1018.7
20260901012803 63 109 1.0 4.0 0.00 0.00 0.00 86 1018.9
20260901012703 63 106 1.0 2.0 0.00 0.00 0.00 86 1019.1
20260901012603 63 101 1.0 2.0 0.00 0.00 0.00 86 1018.9
20260901012503 63 94 2.0 2.0 0.00 0.00 0.00 86 1018.8
20260901012403 63 91 1.0 4.0 0.00 0.00 0.00 86 1018.9
20260901012318 63 90 1.0 4.0 0.00 0.00 0.00 86 1018.9
20260901012306 63 90 1.0 4.0 0.00 0.00 0.00 86 1018.8
20260901012203 63 89 2.0 4.0 0.00 0.00 0.00 86 1018.5
20260901012018 63 97 1.0 4.0 0.00 0.00 0.00 86 1018.7
20260901012003 63 98 1.0 4.0 0.00 0.00 0.00 86 1018.7
20260901011903 63 99 0.0 4.0 0.00 0.00 0.00 86 1018.6
20260901011817 63 99 1.0 4.0 0.00 0.00 0.00 87 1018.6
20260901011703 63 103 1.0 4.0 0.00 0.00 0.00 87 1018.7
20260901011503 63 103 0.0 4.0 0.00 0.00 0.00 87 1018.5
20260901011403 63 107 2.0 4.0 0.00 0.00 0.00 87 1018.7
20260901011303 63 112 0.0 2.0 0.00 0.00 0.00 87 1018.5
20260901011203 63 112 1.0 2.0 0.00 0.00 0.00 87 1018.6
20260901011003 63 112 1.0 2.0 0.00 0.00 0.00 87 1018.5
20260901010903 63 112 1.0 2.0 0.00 0.00 0.00 87 1018.5
20260901010703 63 112 0.0 2.0 0.00 0.00 0.00 87 1018.3
20260901010603 63 0 0.0 0.0 0.00 0.00 0.00 87 1018.4
20260901010503 63 112 0.0 2.0 0.00 0.00 0.00 87 1018.5
20260901010403 63 112 0.0 2.0 0.00 0.00 0.00 87 1018.4
20260901010303 63 112 0.0 2.0 0.00 0.00 0.00 86 1018.7
20260901010203 63 112 0.0 2.0 0.00 0.00 0.00 87 1018.4
20260901010103 63 112 0.0 2.0 0.00 0.00 0.00 87 1018.6
20260901010003 63 104 0.0 2.0 0.00 0.00 0.00 87 1018.3
20260901005903 63 103 1.0 2.0 0.00 0.00 0.00 87 1018.5
20260901005803 63 99 0.0 2.0 0.00 0.00 0.00 86 1018.4
20260901005703 63 101 0.0 2.0 0.00 0.00 0.00 86 1018.5
20260901005604 63 105 0.0 2.0 0.00 0.00 0.00 86 1018.7
20260901005403 63 112 0.0 2.0 0.00 0.00 0.00 86 1018.4
20260901005306 63 112 0.0 2.0 0.00 0.00 0.00 86 1018.5
20260901005203 63 112 0.0 2.0 0.00 0.00 0.00 86 1018.3
20260901005103 63 112 1.0 2.0 0.00 0.00 0.00 86 1018.4
20260901005003 63 112 0.0 2.0 0.00 0.00 0.00 86 1018.5
20260901004903 63 184 0.0 2.0 0.00 0.00 0.00 86 1018.7
20260901004803 63 202 0.0 2.0 0.00 0.00 0.00 86 1018.3
20260901004703 63 202 0.0 2.0 0.00 0.00 0.00 86 1018.5
20260901004503 63 202 0.0 2.0 0.00 0.00 0.00 86 1018.7
20260901004403 63 202 0.0 2.0 0.00 0.00 0.00 86 1018.7
20260901004203 63 0 0.0 0.0 0.00 0.00 0.00 86 1018.6
20260901004103 63 0 0.0 0.0 0.00 0.00 0.00 86 1018.6
20260901004003 63 0 0.0 0.0 0.00 0.00 0.00 86 1018.5
20260901003903 63 0 0.0 0.0 0.00 0.00 0.00 86 1018.6
20260901003803 63 0 0.0 0.0 0.00 0.00 0.00 86 1018.4
20260901003703 63 0 0.0 0.0 0.00 0.00 0.00 86 1018.5
20260901003603 63 0 0.0 0.0 0.00 0.00 0.00 86 1018.6
20260901003503 63 0 0.0 0.0 0.00 0.00 0.00 86 1018.5
20260901003403 63 0 0.0 0.0 0.00 0.00 0.00 86 1018.5
20260901003303 64 112 0.0 2.0 0.00 0.00 0.00 86 1018.1
20260901003203 64 96 0.0 4.0 0.00 0.00 0.00 86 1018.4
20260901003103 64 103 0.0 4.0 0.00 0.00 0.00 86 1018.3
20260901003003 64 104 0.0 4.0 0.00 0.00 0.00 86 1018.4
20260901002903 64 109 0.0 4.0 0.00 0.00 0.00 86 1018.1
20260901002803 64 112 0.0 4.0 0.00 0.00 0.00 86 1018.1
20260901002703 64 120 1.0 4.0 0.00 0.00 0.00 86 1018.3
20260901002603 64 123 0.0 2.0 0.00 0.00 0.00 86 1018.3
20260901002503 64 121 0.0 2.0 0.00 0.00 0.00 86 1018.4
20260901002403 64 117 2.0 4.0 0.00 0.00 0.00 86 1018.3
20260901002305 64 123 0.0 4.0 0.00 0.00 0.00 86 1018.3
20260901002204 64 126 0.0 4.0 0.00 0.00 0.00 86 1018.1
20260901002103 64 127 1.0 4.0 0.00 0.00 0.00 86 1018.2
20260901002017 64 128 1.0 4.0 0.00 0.00 0.00 86 1018.2
20260901002003 64 130 1.0 4.0 0.00 0.00 0.00 86 1018.2
20260901001903 63 142 1.0 2.0 0.00 0.00 0.00 86 1018.4
20260901001703 63 112 1.0 2.0 0.00 0.00 0.00 86 1018.2
20260901001603 63 0 0.0 0.0 0.00 0.00 0.00 86 1018.1
20260901001403 63 0 0.0 0.0 0.00 0.00 0.00 86 1018.3
20260901001303 63 0 0.0 0.0 0.00 0.00 0.00 86 1018.3
20260901001203 64 0 0.0 0.0 0.00 0.00 0.00 86 1018.2
20260901001103 64 0 0.0 0.0 0.00 0.00 0.00 86 1018.2
20260901000903 64 0 0.0 0.0 0.00 0.00 0.00 86 1018.0
20260901000803 64 0 0.0 0.0 0.00 0.00 0.00 86 1018.0
20260901000703 64 0 0.0 0.0 0.00 0.00 0.00 85 1017.9
20260901000603 64 0 0.0 0.0 0.00 0.00 0.00 85 1017.9
20260901000503 64 0 0.0 0.0 0.00 0.00 0.00 85 1017.7
20260901000405 64 112 0.0 2.0 0.00 0.00 0.00 85 1017.9
20260901000303 64 112 0.0 2.0 0.00 0.00 0.00 85 1017.8
20260901000204 64 112 0.0 2.0 0.00 0.00 0.00 85 1017.9
20260901000103 64 112 0.0 2.0 0.00 0.00 0.00 85 1017.8
20260901000003 64 112 0.0 2.0 0.00 0.00 0.00 85 1017.9
20260831235903 64 124 1.0 2.0 0.00 0.00 0.00 85 1017.6
20260831235803 64 135 0.0 2.0 0.00 0.00 0.00 85 1017.8
20260831235703 64 140 0.0 2.0 0.00 0.00 0.00 85 1017.7
20260831235617 64 147 0.0 2.0 0.00 0.00 0.00 85 1017.6
20260831235503 64 147 0.0 2.0 0.00 0.00 0.00 85 1017.7
20260831235306 64 151 1.0 2.0 0.00 0.00 0.00 85 1017.7
20260831235203 64 152 1.0 2.0 0.00 0.00 0.00 85 1017.5
20260831235116 64 142 1.0 2.0 0.00 0.00 0.00 85 1017.6
20260831235103 64 143 1.0 2.0 0.00 0.00 0.00 85 1017.8
20260831235003 64 191 0.0 2.0 0.00 0.00 0.00 84 1017.6
20260831234803 64 117 1.0 4.0 0.00 0.00 0.00 84 1017.4
20260831234703 64 115 0.0 4.0 0.00 0.00 0.00 84 1017.5
20260831234603 64 111 1.0 4.0 0.00 0.00 0.00 84 1017.4
20260831234503 64 107 0.0 4.0 0.00 0.00 0.00 84 1017.8
20260831234403 64 107 1.0 4.0 0.00 0.00 0.00 84 1017.5
20260831234303 64 115 0.0 2.0 0.00 0.00 0.00 84 1017.5
20260831234103 64 122 0.0 2.0 0.00 0.00 0.00 84 1017.4
20260831234003 64 135 0.0 2.0 0.00 0.00 0.00 84 1017.3
20260831233918 64 140 1.0 2.0 0.00 0.00 0.00 84 1017.4
20260831233903 64 139 1.0 2.0 0.00 0.00 0.00 84 1017.2
20260831233803 64 137 0.0 2.0 0.00 0.00 0.00 84 1017.5
20260831233603 64 151 1.0 4.0 0.00 0.00 0.00 84 1017.2
20260831233503 64 134 1.0 4.0 0.00 0.00 0.00 84 1017.4
20260831233403 65 130 1.0 4.0 0.00 0.00 0.00 84 1017.3
20260831233303 65 130 1.0 4.0 0.00 0.00 0.00 84 1017.2
20260831233203 65 120 2.0 4.0 0.00 0.00 0.00 84 1017.4
20260831233103 65 115 2.0 4.0 0.00 0.00 0.00 84 1017.4
20260831233003 65 111 1.0 4.0 0.00 0.00 0.00 83 1017.4
20260831232903 65 111 2.0 4.0 0.00 0.00 0.00 84 1017.2
20260831232803 65 116 2.0 4.0 0.00 0.00 0.00 84 1017.4
20260831232703 65 114 2.0 4.0 0.00 0.00 0.00 84 1017.3
20260831232603 65 112 2.0 4.0 0.00 0.00 0.00 84 1017.3
20260831232503 65 113 2.0 4.0 0.00 0.00 0.00 84 1017.1
20260831232403 64 120 2.0 4.0 0.00 0.00 0.00 84 1017.1
20260831232317 65 111 2.0 2.0 0.00 0.00 0.00 84 1017.1
20260831232305 65 110 2.0 2.0 0.00 0.00 0.00 84 1017.1
20260831232203 65 114 1.0 2.0 0.00 0.00 0.00 84 1017.0
20260831232003 65 138 0.0 2.0 0.00 0.00 0.00 83 1016.9
20260831231903 65 128 1.0 4.0 0.00 0.00 0.00 83 1017.0
20260831231818 65 128 1.0 4.0 0.00 0.00 0.00 83 1016.9
20260831231803 65 125 1.0 4.0 0.00 0.00 0.00 83 1016.9
20260831231703 65 120 1.0 4.0 0.00 0.00 0.00 83 1016.9
20260831231503 65 126 2.0 4.0 0.00 0.00 0.00 83 1017.2
20260831231403 65 122 1.0 4.0 0.00 0.00 0.00 83 1017.0
20260831231304 65 113 1.0 4.0 0.00 0.00 0.00 83 1016.8
20260831231203 65 114 0.0 4.0 0.00 0.00 0.00 83 1017.0
20260831231103 65 104 1.0 4.0 0.00 0.00 0.00 83 1017.1
20260831231003 65 97 1.0 4.0 0.00 0.00 0.00 83 1016.9
20260831230903 65 102 1.0 4.0 0.00 0.00 0.00 83 1016.8
20260831230803 65 103 2.0 4.0 0.00 0.00 0.00 83 1016.8
20260831230717 65 104 1.0 4.0 0.00 0.00 0.00 83 1017.1
20260831230703 65 104 1.0 4.0 0.00 0.00 0.00 83 1017.0
20260831230603 65 103 1.0 4.0 0.00 0.00 0.00 83 1016.7
20260831230403 65 108 1.0 4.0 0.00 0.00 0.00 83 1016.8
20260831230317 65 106 0.0 4.0 0.00 0.00 0.00 83 1016.9
20260831230303 65 106 0.0 4.0 0.00 0.00 0.00 83 1016.7
20260831230203 65 99 0.0 4.0 0.00 0.00 0.00 83 1016.9
20260831230003 65 101 2.0 4.0 0.00 0.00 0.00 83 1016.8
20260831225909 65 100 0.0 4.0 0.00 0.00 0.00 83 1016.7
20260831225803 65 99 2.0 4.0 0.00 0.00 0.00 83 1016.5
20260831225703 65 99 1.0 4.0 0.00 0.00 0.00 83 1016.5
20260831225603 65 93 0.0 4.0 0.00 0.00 0.00 82 1016.8
20260831225503 65 92 2.0 4.0 0.00 0.00 0.00 82 1016.7
20260831225403 65 95 2.0 4.0 0.00 0.00 0.00 82 1016.9
20260831225306 65 100 2.0 4.0 0.00 0.00 0.00 82 1016.7
20260831225203 65 101 2.0 4.0 0.00 0.00 0.00 82 1016.5
20260831225103 65 104 2.0 6.0 0.00 0.00 0.00 82 1016.5
20260831225005 65 100 2.0 6.0 0.00 0.00 0.00 82 1016.5
20260831224917 65 101 2.0 6.0 0.00 0.00 0.00 82 1016.6
20260831224903 65 103 2.0 6.0 0.00 0.00 0.00 82 1016.6
20260831224803 65 103 1.0 6.0 0.00 0.00 0.00 82 1016.5
20260831224603 65 104 3.0 6.0 0.00 0.00 0.00 82 1016.7
20260831224503 65 101 3.0 6.0 0.00 0.00 0.00 82 1016.6
20260831224403 65 93 2.0 6.0 0.00 0.00 0.00 82 1016.5
20260831224303 65 89 3.0 9.0 0.00 0.00 0.00 82 1016.7
20260831224218 65 96 3.0 9.0 0.00 0.00 0.00 82 1016.6
20260831224203 65 98 3.0 9.0 0.00 0.00 0.00 82 1016.6
20260831224118 65 103 2.0 9.0 0.00 0.00 0.00 82 1016.6
20260831224103 65 105 2.0 9.0 0.00 0.00 0.00 82 1016.6
20260831223803 65 120 4.0 9.0 0.00 0.00 0.00 82 1016.5
20260831223703 65 122 3.0 9.0 0.00 0.00 0.00 82 1016.5
20260831223603 65 121 2.0 9.0 0.00 0.00 0.00 82 1016.6
20260831223403 65 109 2.0 9.0 0.00 0.00 0.00 82 1016.8
20260831223303 65 97 4.0 9.0 0.00 0.00 0.00 82 1016.5
20260831223203 65 93 2.0 7.0 0.00 0.00 0.00 82 1016.3
20260831223118 65 89 1.0 6.0 0.00 0.00 0.00 82 1016.5
20260831223103 65 88 2.0 6.0 0.00 0.00 0.00 82 1016.4
20260831223003 65 91 2.0 6.0 0.00 0.00 0.00 82 1016.2
20260831222803 66 106 2.0 6.0 0.00 0.00 0.00 82 1016.2
20260831222703 66 107 3.0 6.0 0.00 0.00 0.00 82 1016.4
20260831222603 65 108 3.0 6.0 0.00 0.00 0.00 82 1016.2
20260831222503 66 108 4.0 6.0 0.00 0.00 0.00 82 1016.3
20260831222418 66 105 2.0 6.0 0.00 0.00 0.00 82 1016.4
20260831222403 66 104 2.0 6.0 0.00 0.00 0.00 82 1016.4
20260831222306 66 107 2.0 6.0 0.00 0.00 0.00 82 1016.3
20260831222103 66 112 2.0 7.0 0.00 0.00 0.00 82 1016.1
20260831222003 66 124 4.0 7.0 0.00 0.00 0.00 82 1016.4
20260831221903 66 125 2.0 7.0 0.00 0.00 0.00 82 1016.3
20260831221803 66 129 2.0 7.0 0.00 0.00 0.00 81 1016.3
20260831221703 66 130 1.0 7.0 0.00 0.00 0.00 81 1015.9
20260831221603 66 136 4.0 7.0 0.00 0.00 0.00 81 1016.4
20260831221503 66 127 1.0 6.0 0.00 0.00 0.00 81 1016.1
20260831221418 66 130 2.0 6.0 0.00 0.00 0.00 81 1016.4
20260831221403 66 127 2.0 6.0 0.00 0.00 0.00 81 1016.4
20260831221303 66 122 1.0 7.0 0.00 0.00 0.00 81 1016.1
20260831221003 66 118 1.0 7.0 0.00 0.00 0.00 81 1016.1
20260831220903 66 141 2.0 7.0 0.00 0.00 0.00 81 1016.0
20260831220803 66 187 3.0 7.0 0.00 0.00 0.00 81 1016.1
20260831220703 66 186 2.0 4.0 0.00 0.00 0.00 81 1016.2
20260831220603 66 169 2.0 4.0 0.00 0.00 0.00 81 1016.1
20260831220503 66 166 2.0 4.0 0.00 0.00 0.00 81 1016.3
20260831220418 66 124 2.0 6.0 0.00 0.00 0.00 81 1016.4
20260831220403 66 117 2.0 6.0 0.00 0.00 0.00 81 1016.4
20260831220303 66 103 2.0 6.0 0.00 0.00 0.00 81 1016.3
20260831220103 66 101 0.0 6.0 0.00 0.00 0.00 81 1016.2
20260831220003 66 99 2.0 6.0 0.00 0.00 0.00 81 1016.2
20260831215903 66 106 3.0 6.0 0.00 0.00 0.00 81 1016.3
20260831215803 66 103 1.0 7.0 0.00 0.00 0.00 81 1016.1
20260831215703 66 95 2.0 7.0 0.00 0.00 0.00 81 1016.3
20260831215603 66 87 1.0 8.0 0.00 0.00 0.00 81 1016.4
20260831215503 66 73 2.0 9.0 0.00 0.00 0.00 81 1016.3
20260831215418 66 72 3.0 9.0 0.00 0.00 0.00 81 1016.1
20260831215403 66 71 3.0 9.0 0.00 0.00 0.00 81 1016.1
20260831215306 66 62 4.0 9.0 0.00 0.00 0.00 81 1015.9
20260831215103 66 156 5.0 9.0 0.00 0.00 0.00 80 1016.1
20260831215003 66 171 1.0 7.0 0.00 0.00 0.00 80 1015.9
20260831214917 66 169 0.0 7.0 0.00 0.00 0.00 80 1016.2
20260831214903 66 165 0.0 7.0 0.00 0.00 0.00 80 1016.2
20260831214803 66 183 0.0 7.0 0.00 0.00 0.00 80 1016.0
20260831214603 66 117 2.0 8.0 0.00 0.00 0.00 80 1015.8
20260831214503 66 124 2.0 8.0 0.00 0.00 0.00 80 1015.8
20260831214403 66 125 2.0 8.0 0.00 0.00 0.00 80 1015.9
20260831214316 66 119 2.0 8.0 0.00 0.00 0.00 80 1016.1
20260831214303 66 123 2.0 8.0 0.00 0.00 0.00 80 1015.9
20260831214217 66 132 1.0 7.0 0.00 0.00 0.00 80 1015.8
20260831214204 66 135 1.0 7.0 0.00 0.00 0.00 80 1015.8
20260831213903 66 135 2.0 7.0 0.00 0.00 0.00 80 1015.8
20260831213803 66 141 3.0 7.0 0.00 0.00 0.00 80 1015.7
20260831213703 66 107 3.0 6.0 0.00 0.00 0.00 80 1015.7
20260831213617 66 96 2.0 6.0 0.00 0.00 0.00 80 1015.6
20260831213603 66 91 2.0 6.0 0.00 0.00 0.00 80 1015.6
20260831213503 67 107 2.0 6.0 0.00 0.00 0.00 80 1015.7
20260831213303 67 107 2.0 11.0 0.00 0.00 0.00 80 1015.7
20260831213203 67 109 3.0 11.0 0.00 0.00 0.00 80 1015.6
20260831213103 67 128 4.0 11.0 0.00 0.00 0.00 80 1015.7
20260831213003 67 117 3.0 11.0 0.00 0.00 0.00 80 1015.5
20260831212903 67 110 4.0 11.0 0.00 0.00 0.00 80 1015.6
20260831212817 67 109 4.0 11.0 0.00 0.00 0.00 80 1015.6
20260831212803 67 112 4.0 11.0 0.00 0.00 0.00 80 1015.6
20260831212703 67 103 4.0 8.0 0.00 0.00 0.00 80 1015.6
20260831212503 67 82 4.0 9.0 0.00 0.00 0.00 80 1015.5
20260831212403 67 70 4.0 9.0 0.00 0.00 0.00 80 1015.7
20260831212306 67 51 3.0 9.0 0.00 0.00 0.00 80 1015.5
20260831212217 67 39 2.0 9.0 0.00 0.00 0.00 80 1015.4
20260831212203 67 47 2.0 9.0 0.00 0.00 0.00 80 1015.4
20260831212103 67 69 3.0 9.0 0.00 0.00 0.00 80 1015.4
20260831211903 67 94 2.0 7.0 0.00 0.00 0.00 79 1015.5
20260831211803 67 86 4.0 7.0 0.00 0.00 0.00 79 1015.4
20260831211703 67 112 1.0 7.0 0.00 0.00 0.00 79 1015.4
20260831211603 67 111 2.0 7.0 0.00 0.00 0.00 79 1015.5
20260831211503 67 121 2.0 7.0 0.00 0.00 0.00 79 1015.3
20260831211403 67 123 2.0 8.0 0.00 0.00 0.00 80 1015.5
20260831211303 67 142 3.0 8.0 0.00 0.00 0.00 79 1015.6
20260831211203 67 152 2.0 8.0 0.00 0.00 0.00 79 1015.4
20260831211103 67 138 2.0 8.0 0.00 0.00 0.00 80 1015.5
20260831211003 67 128 3.0 8.0 0.00 0.00 0.00 79 1015.6
20260831210904 67 126 4.0 8.0 0.00 0.00 0.00 79 1015.6
20260831210803 67 116 3.0 8.0 0.00 0.00 0.00 79 1015.4
20260831210718 67 101 3.0 8.0 0.00 0.00 0.00 79 1015.5
20260831210603 67 91 2.0 11.0 0.00 0.00 0.00 79 1015.6
20260831210418 67 96 3.0 11.0 0.00 0.00 0.00 79 1015.3
20260831210403 67 94 3.0 11.0 0.00 0.00 0.00 79 1015.3
20260831210303 67 88 3.0 11.0 0.00 0.00 0.00 79 1015.5
20260831210103 67 85 4.0 11.0 0.00 0.00 0.00 79 1015.2
20260831210004 67 90 4.0 8.0 0.00 0.00 0.00 79 1015.3
20260831205903 67 80 3.0 8.0 0.00 0.00 0.00 79 1015.5
20260831205817 67 77 4.0 7.0 0.00 0.00 0.00 79 1015.3
20260831205803 67 76 4.0 7.0 0.00 0.00 0.00 79 1015.3
20260831205703 67 53 2.0 7.0 0.00 0.00 0.00 79 1015.2
20260831205503 67 99 2.0 8.0 0.00 0.00 0.00 79 1015.3
20260831205403 67 116 2.0 8.0 0.00 0.00 0.00 79 1015.4
20260831205305 67 100 4.0 8.0 0.00 0.00 0.00 79 1015.5
20260831205203 67 120 3.0 8.0 0.00 0.00 0.00 80 1015.2
20260831205103 67 108 4.0 8.0 0.00 0.00 0.00 80 1015.1
20260831205003 67 98 1.0 11.0 0.00 0.00 0.00 80 1015.0
20260831204903 67 91 2.0 11.0 0.00 0.00 0.00 80 1015.1
20260831204803 67 86 2.0 11.0 0.00 0.00 0.00 80 1015.0
20260831204703 67 75 4.0 11.0 0.00 0.00 0.00 80 1015.1
20260831204603 67 60 2.0 11.0 0.00 0.00 0.00 79 1015.1
20260831204503 67 40 4.0 11.0 0.00 0.00 0.00 79 1015.0
20260831204403 67 36 4.0 11.0 0.00 0.00 0.00 79 1015.2
20260831204318 67 49 3.0 11.0 0.00 0.00 0.00 79 1015.1
20260831204303 67 56 2.0 11.0 0.00 0.00 0.00 79 1015.1
20260831204203 67 82 2.0 11.0 0.00 0.00 0.00 79 1014.9
20260831204003 67 112 3.0 11.0 0.00 0.00 0.00 79 1015.2
20260831203903 67 116 4.0 11.0 0.00 0.00 0.00 79 1015.0
20260831203803 67 122 4.0 11.0 0.00 0.00 0.00 79 1014.9
20260831203703 67 106 3.0 11.0 0.00 0.00 0.00 79 1015.0
20260831203603 67 121 3.0 11.0 0.00 0.00 0.00 79 1015.0
20260831203503 68 133 4.0 9.0 0.00 0.00 0.00 79 1015.0
20260831203403 68 118 1.0 9.0 0.00 0.00 0.00 79 1015.2
20260831203303 67 130 2.0 9.0 0.00 0.00 0.00 79 1015.1
20260831203217 67 129 2.0 9.0 0.00 0.00 0.00 79 1014.9
20260831203203 67 131 2.0 9.0 0.00 0.00 0.00 79 1014.9
20260831203103 67 118 2.0 9.0 0.00 0.00 0.00 79 1015.0
20260831202903 67 219 5.0 9.0 0.00 0.00 0.00 79 1015.0
20260831202803 68 162 4.0 9.0 0.00 0.00 0.00 79 1014.9
20260831202703 68 124 2.0 9.0 0.00 0.00 0.00 79 1014.8
20260831202603 68 136 4.0 9.0 0.00 0.00 0.00 79 1014.9
20260831202503 68 99 2.0 8.0 0.00 0.00 0.00 79 1015.0
20260831202403 68 100 2.0 8.0 0.00 0.00 0.00 79 1014.8
20260831202318 68 96 2.0 8.0 0.00 0.00 0.00 79 1014.8
20260831202306 68 92 2.0 8.0 0.00 0.00 0.00 79 1014.9
20260831202003 68 78 4.0 8.0 0.00 0.00 0.00 79 1014.8
20260831201903 68 72 4.0 8.0 0.00 0.00 0.00 79 1014.8
20260831201803 68 70 2.0 8.0 0.00 0.00 0.00 79 1015.0
20260831201703 68 99 2.0 11.0 0.00 0.00 0.00 79 1015.0
20260831201603 68 100 2.0 11.0 0.00 0.00 0.00 79 1014.8
20260831201503 68 114 2.0 11.0 0.00 0.00 0.00 80 1014.9
20260831201417 68 115 4.0 11.0 0.00 0.00 0.00 79 1014.7
20260831201403 68 113 4.0 11.0 0.00 0.00 0.00 79 1014.7
20260831201303 68 110 4.0 11.0 0.00 0.00 0.00 79 1014.7
20260831201003 68 97 3.0 9.0 0.00 0.00 0.00 79 1014.7
20260831200905 68 103 4.0 9.0 0.00 0.00 0.00 79 1014.7
20260831200803 68 109 5.0 9.0 0.00 0.00 0.00 79 1014.9
20260831200718 68 126 4.0 8.0 0.00 0.00 0.00 79 1014.8
20260831200603 68 172 2.0 7.0 0.00 0.00 0.00 79 1014.8
20260831200403 68 183 3.0 6.0 0.00 0.00 0.00 79 1014.7
20260831200318 68 190 3.0 6.0 0.00 0.00 0.00 78 1014.9
20260831200303 69 197 2.0 4.0 0.00 0.00 0.00 78 1014.8
20260831200203 69 138 2.0 6.0 0.00 0.00 0.00 78 1014.7
20260831200003 69 86 1.0 8.0 0.00 0.00 0.00 78 1014.8
20260831195903 69 82 1.0 8.0 0.00 0.00 0.00 78 1014.6
20260831195817 69 81 2.0 8.0 0.00 0.00 0.00 78 1014.5
20260831195803 69 79 2.0 8.0 0.00 0.00 0.00 78 1014.5
20260831195703 69 77 3.0 8.0 0.00 0.00 0.00 78 1014.7
20260831195503 69 103 0.0 4.0 0.00 0.00 0.00 78 1014.7
20260831195417 69 106 1.0 4.0 0.00 0.00 0.00 79 1014.8
20260831195403 69 104 1.0 4.0 0.00 0.00 0.00 79 1014.8
20260831195321 69 106 1.0 7.0 0.00 0.00 0.00 79 1014.5
20260831195003 68 114 2.0 7.0 0.00 0.00 0.00 79 1014.9
20260831194903 68 120 2.0 7.0 0.00 0.00 0.00 79 1014.6
20260831194803 68 129 4.0 8.0 0.00 0.00 0.00 79 1014.6
20260831194703 68 127 2.0 8.0 0.00 0.00 0.00 79 1014.6
20260831194603 68 136 2.0 8.0 0.00 0.00 0.00 79 1014.6
20260831194503 68 90 2.0 8.0 0.00 0.00 0.00 79 1014.8
20260831194403 68 96 1.0 8.0 0.00 0.00 0.00 79 1014.6
20260831194318 68 68 4.0 8.0 0.00 0.00 0.00 79 1014.6
20260831194303 68 44 2.0 4.0 0.00 0.00 0.00 79 1014.7
20260831194218 68 91 2.0 4.0 0.00 0.00 0.00 79 1014.7
20260831194203 68 102 2.0 4.0 0.00 0.00 0.00 79 1014.7
20260831193903 68 107 1.0 4.0 0.00 0.00 0.00 80 1014.7
20260831193803 68 108 0.0 2.0 0.00 0.00 0.00 80 1014.6
20260831193703 68 100 0.0 4.0 0.00 0.00 0.00 80 1014.6
20260831193603 68 98 0.0 4.0 0.00 0.00 0.00 80 1014.6
20260831193503 68 104 1.0 4.0 0.00 0.00 0.00 80 1014.6
20260831193403 67 118 0.0 4.0 0.00 0.00 0.00 80 1014.6
20260831193303 68 118 1.0 4.0 0.00 0.00 0.00 80 1014.6
20260831193218 67 119 2.0 4.0 0.00 0.00 0.00 80 1014.6
20260831193203 67 118 2.0 4.0 0.00 0.00 0.00 80 1014.6
20260831193103 68 163 1.0 4.0 0.00 0.00 0.00 80 1014.4
20260831192918 67 119 3.0 4.0 0.00 0.00 0.00 80 1014.8
20260831192903 67 114 3.0 4.0 0.00 0.00 0.00 80 1014.8
20260831192803 68 111 1.0 4.0 0.00 0.00 0.00 80 1014.4
20260831192618 67 87 3.0 4.0 0.00 0.00 0.00 80 1014.6
20260831192603 67 85 3.0 4.0 0.00 0.00 0.00 80 1014.6
20260831192503 67 86 2.0 4.0 0.00 0.00 0.00 80 1014.5
20260831192305 67 86 2.0 4.0 0.00 0.00 0.00 80 1014.6
20260831192203 67 92 1.0 4.0 0.00 0.00 0.00 80 1014.4
20260831192103 67 87 1.0 4.0 0.00 0.00 0.00 80 1014.5
20260831192017 67 84 2.0 4.0 0.00 0.00 0.00 80 1014.4
20260831192003 67 81 2.0 4.0 0.00 0.00 0.00 80 1014.4
20260831191903 68 81 1.0 4.0 0.00 0.00 0.00 80 1014.5
20260831191703 67 78 2.0 4.0 0.00 0.00 0.00 80 1014.5
20260831191603 67 87 2.0 4.0 0.00 0.00 0.00 80 1014.6
20260831191516 68 98 2.0 4.0 0.00 0.00 0.00 80 1014.5
20260831191503 68 101 1.0 2.0 0.00 0.00 0.00 80 1014.5
20260831191403 68 101 1.0 4.0 0.00 0.00 0.00 80 1014.4
20260831191203 67 99 1.0 4.0 0.00 0.00 0.00 80 1014.5
20260831191103 68 82 1.0 4.0 0.00 0.00 0.00 81 1014.6
20260831191003 67 75 2.0 4.0 0.00 0.00 0.00 81 1014.6
20260831190903 67 71 2.0 4.0 0.00 0.00 0.00 81 1014.4
20260831190803 67 65 2.0 4.0 0.00 0.00 0.00 81 1014.5
20260831190703 67 52 3.0 4.0 0.00 0.00 0.00 81 1014.3
20260831190603 67 47 2.0 4.0 0.00 0.00 0.00 81 1014.2
20260831190503 67 43 2.0 4.0 0.00 0.00 0.00 81 1014.2
20260831190403 67 41 2.0 4.0 0.00 0.00 0.00 81 1014.5
20260831190303 67 38 2.0 4.0 0.00 0.00 0.00 80 1014.4
20260831190203 68 48 2.0 4.0 0.00 0.00 0.00 80 1014.2
20260831190003 68 56 2.0 6.0 0.00 0.00 0.00 80 1014.3
20260831185903 68 39 0.0 6.0 0.00 0.00 0.00 81 1014.3
20260831185803 68 24 2.0 6.0 0.00 0.00 0.00 81 1014.1
20260831185703 67 25 2.0 6.0 0.00 0.00 0.00 81 1014.3
20260831185603 67 28 2.0 6.0 0.00 0.00 0.00 81 1014.4
20260831185503 67 39 3.0 6.0 0.00 0.00 0.00 80 1014.3
20260831185403 67 45 3.0 6.0 0.00 0.00 0.00 80 1014.7
20260831185306 68 57 4.0 6.0 0.00 0.00 0.00 80 1014.4
20260831185203 68 72 2.0 6.0 0.00 0.00 0.00 80 1014.3
20260831185103 68 69 2.0 6.0 0.00 0.00 0.00 81 1014.5
20260831185003 68 69 0.0 6.0 0.00 0.00 0.00 81 1014.5
20260831184903 68 84 1.0 6.0 0.00 0.00 0.00 81 1014.4
20260831184803 68 87 1.0 6.0 0.00 0.00 0.00 81 1014.4
20260831184703 67 88 3.0 6.0 0.00 0.00 0.00 81 1014.3
20260831184613 68 93 0.0 6.0 0.00 0.00 0.00 81 1014.3
20260831184503 67 89 2.0 6.0 0.00 0.00 0.00 81 1014.4
20260831184403 67 74 3.0 6.0 0.00 0.00 0.00 81 1014.3
20260831184303 67 74 2.0 6.0 0.00 0.00 0.00 81 1014.4
20260831184203 67 61 2.0 6.0 0.00 0.00 0.00 81 1014.3
20260831184103 67 40 2.0 6.0 0.00 0.00 0.00 81 1014.4
20260831184003 67 48 2.0 4.0 0.00 0.00 0.00 81 1014.4
20260831183903 67 49 2.0 4.0 0.00 0.00 0.00 81 1014.2
20260831183803 67 38 3.0 4.0 0.00 0.00 0.00 81 1014.2
20260831183703 67 44 2.0 4.0 0.00 0.00 0.00 81 1014.2
20260831183603 67 54 3.0 4.0 0.00 0.00 0.00 81 1014.3
20260831183503 67 63 2.0 4.0 0.00 0.00 0.00 81 1014.5
20260831183403 67 77 1.0 4.0 0.00 0.00 0.00 81 1014.5
20260831183303 67 83 3.0 4.0 0.00 0.00 0.00 81 1014.4
20260831183203 67 81 2.0 6.0 0.00 0.00 0.00 81 1014.6
20260831183103 67 79 2.0 6.0 0.00 0.00 0.00 81 1014.4
20260831183003 67 80 2.0 6.0 0.00 0.00 0.00 82 1014.4
20260831182903 67 79 2.0 6.0 0.00 0.00 0.00 81 1014.5
20260831182803 67 79 2.0 6.0 0.00 0.00 0.00 82 1014.5
20260831182703 67 77 4.0 6.0 0.00 0.00 0.00 81 1014.3
20260831182603 67 74 4.0 6.0 0.00 0.00 0.00 81 1014.5
20260831182503 67 76 3.0 4.0 0.00 0.00 0.00 81 1014.4
20260831182403 67 77 2.0 4.0 0.00 0.00 0.00 81 1014.3
20260831182317 67 60 2.0 7.0 0.00 0.00 0.00 81 1014.3
20260831182305 67 60 2.0 7.0 0.00 0.00 0.00 81 1014.6
20260831182218 67 66 3.0 7.0 0.00 0.00 0.00 81 1014.5
20260831182203 67 68 3.0 7.0 0.00 0.00 0.00 81 1014.5
20260831181918 67 71 3.0 7.0 0.00 0.00 0.00 81 1014.6
20260831181910 67 70 3.0 7.0 0.00 0.00 0.00 81 1014.4
20260831181803 67 82 2.0 6.0 0.00 0.00 0.00 81 1014.3
20260831181617 67 79 2.0 6.0 0.00 0.00 0.00 82 1014.5
20260831181603 67 78 2.0 6.0 0.00 0.00 0.00 82 1014.5
20260831181503 67 78 3.0 6.0 0.00 0.00 0.00 81 1014.5
20260831181303 67 76 2.0 6.0 0.00 0.00 0.00 81 1014.5
20260831181203 67 74 2.0 6.0 0.00 0.00 0.00 81 1014.6
20260831181103 67 77 3.0 6.0 0.00 0.00 0.00 80 1014.4
20260831181003 67 76 4.0 6.0 0.00 0.00 0.00 80 1014.5
20260831180903 67 82 4.0 6.0 0.00 0.00 0.00 80 1014.5
20260831180803 68 72 3.0 6.0 0.00 0.00 0.00 79 1014.5
20260831180703 68 60 3.0 4.0 0.00 0.00 0.00 79 1014.5
20260831180603 68 52 2.0 4.0 0.00 0.00 0.00 79 1014.5
20260831180503 68 54 1.0 4.0 0.00 0.00 0.00 79 1014.2
20260831180403 68 43 1.0 4.0 0.00 0.00 0.00 79 1014.5
20260831180303 68 51 2.0 4.0 0.00 0.00 0.00 78 1014.4
20260831180203 68 87 2.0 2.0 0.00 0.00 0.00 79 1014.7
20260831180005 68 95 1.0 4.0 0.00 0.00 0.00 79 1014.6
20260831175903 68 99 0.0 4.0 0.00 0.00 0.00 79 1014.5
20260831175803 68 98 1.0 4.0 0.00 0.00 0.00 79 1014.6
20260831175703 68 84 0.0 4.0 0.00 0.00 0.00 80 1014.5
20260831175605 68 74 1.0 4.0 0.00 0.00 0.00 80 1014.4
20260831175503 67 82 4.0 7.0 0.00 0.00 0.00 79 1014.6
20260831175423 68 84 2.0 7.0 0.00 0.00 0.00 79 1014.3
20260831175306 68 70 2.0 7.0 0.00 0.00 0.00 79 1014.3
20260831175203 67 74 2.0 7.0 0.00 0.00 0.00 79 1014.5
20260831175103 67 70 4.0 7.0 0.00 0.00 0.00 79 1014.3
20260831175017 68 56 2.0 6.0 0.00 0.00 0.00 79 1014.4
20260831175003 68 54 2.0 6.0 0.00 0.00 0.00 79 1014.4
20260831174903 67 45 2.0 6.0 0.00 0.00 0.00 79 1014.5
20260831174717 68 57 2.0 6.0 0.00 0.00 0.00 79 1014.4
20260831174703 68 60 2.0 6.0 0.00 0.00 0.00 79 1014.5
20260831174603 68 78 3.0 6.0 0.00 0.00 0.00 79 1014.3
20260831174403 68 81 0.0 4.0 0.00 0.00 0.00 79 1014.4
20260831174303 68 68 1.0 4.0 0.00 0.00 0.00 79 1014.3
20260831174203 67 45 2.0 4.0 0.00 0.00 0.00 79 1014.4
20260831174103 67 21 3.0 4.0 0.00 0.00 0.00 79 1014.5
20260831174017 67 11 3.0 4.0 0.00 0.00 0.00 79 1014.6
20260831174003 67 6 3.0 4.0 0.00 0.00 0.00 79 1014.6
20260831173903 67 354 2.0 4.0 0.00 0.00 0.00 79 1014.2
20260831173703 67 29 2.0 6.0 0.00 0.00 0.00 79 1014.6
20260831173603 67 24 2.0 6.0 0.00 0.00 0.00 79 1014.3
20260831173503 68 37 3.0 6.0 0.00 0.00 0.00 78 1014.3
20260831173423 68 44 4.0 6.0 0.00 0.00 0.00 78 1014.4
20260831173403 68 43 4.0 6.0 0.00 0.00 0.00 78 1014.4
20260831173303 68 14 3.0 6.0 0.00 0.00 0.00 78 1014.4
20260831173217 68 13 2.0 4.0 0.00 0.00 0.00 77 1014.4
20260831173103 69 48 3.0 4.0 0.00 0.00 0.00 76 1014.4
20260831172903 69 360 0.0 4.0 0.00 0.00 0.00 76 1014.3
20260831172803 69 24 2.0 4.0 0.00 0.00 0.00 75 1014.5
20260831172703 69 30 2.0 4.0 0.00 0.00 0.00 76 1014.4
20260831172603 69 38 2.0 4.0 0.00 0.00 0.00 76 1014.4
20260831172503 69 74 3.0 4.0 0.00 0.00 0.00 74 1014.4
20260831172418 70 96 3.0 4.0 0.00 0.00 0.00 74 1014.5
20260831172403 70 108 3.0 4.0 0.00 0.00 0.00 74 1014.5
20260831172306 72 134 2.0 4.0 0.00 0.00 0.00 73 1014.5
20260831172118 72 178 2.0 4.0 0.00 0.00 0.00 73 1014.7
20260831172103 72 190 2.0 4.0 0.00 0.00 0.00 73 1014.7
20260831172003 72 198 1.0 4.0 0.00 0.00 0.00 74 1014.5
20260831171917 71 176 2.0 4.0 0.00 0.00 0.00 74 1014.7
20260831171803 71 111 0.0 4.0 0.00 0.00 0.00 76 1014.6
20260831171617 69 99 1.0 4.0 0.00 0.00 0.00 77 1014.5
20260831171603 69 92 1.0 4.0 0.00 0.00 0.00 77 1014.5
20260831171503 69 66 1.0 4.0 0.00 0.00 0.00 77 1014.7
20260831171303 69 16 2.0 6.0 0.00 0.00 0.00 77 1014.6
20260831171203 69 3 2.0 6.0 0.00 0.00 0.00 77 1014.6
20260831171103 68 349 2.0 7.0 0.00 0.00 0.00 77 1014.3
20260831171003 68 348 2.0 7.0 0.00 0.00 0.00 78 1014.2
20260831170917 68 347 4.0 8.0 0.00 0.00 0.00 78 1014.6
20260831170903 68 348 4.0 8.0 0.00 0.00 0.00 78 1014.6
20260831170803 68 356 4.0 8.0 0.00 0.00 0.00 78 1014.4
20260831170603 68 16 3.0 8.0 0.00 0.00 0.00 78 1014.2
20260831170518 68 35 3.0 8.0 0.00 0.00 0.00 78 1014.6
20260831170503 68 40 3.0 8.0 0.00 0.00 0.00 78 1014.6
20260831170418 68 54 5.0 8.0 0.00 0.00 0.00 78 1014.5
20260831170403 68 58 5.0 8.0 0.00 0.00 0.00 78 1014.5
20260831170103 67 67 3.0 6.0 0.00 0.00 0.00 77 1014.7
20260831170003 68 21 3.0 6.0 0.00 0.00 0.00 77 1014.5
20260831165808 69 255 0.0 2.0 0.00 0.00 0.00 78 1014.8
20260831165703 68 248 1.0 4.0 0.00 0.00 0.00 77 1014.7
20260831165603 68 247 1.0 4.0 0.00 0.00 0.00 78 1014.6
20260831165503 68 238 0.0 4.0 0.00 0.00 0.00 78 1014.6
20260831165418 68 229 2.0 4.0 0.00 0.00 0.00 78 1014.6
20260831165305 68 222 2.0 4.0 0.00 0.00 0.00 78 1014.5
20260831165217 68 221 2.0 4.0 0.00 0.00 0.00 78 1014.5
20260831165103 68 217 2.0 4.0 0.00 0.00 0.00 76 1014.5
20260831164903 70 152 2.0 2.0 0.00 0.00 0.00 75 1014.8
20260831164803 69 111 1.0 2.0 0.00 0.00 0.00 76 1014.5
20260831164718 69 98 1.0 2.0 0.00 0.00 0.00 76 1014.7
20260831164703 69 98 0.0 2.0 0.00 0.00 0.00 76 1014.6
20260831164609 69 97 1.0 2.0 0.00 0.00 0.00 76 1014.6
20260831164403 69 41 1.0 2.0 0.00 0.00 0.00 77 1014.6
20260831164303 69 356 0.0 2.0 0.00 0.00 0.00 78 1014.7
20260831164203 68 341 0.0 2.0 0.00 0.00 0.00 79 1014.5
20260831164103 68 338 0.0 2.0 0.00 0.00 0.00 79 1015.0
20260831164003 67 348 0.0 2.0 0.00 0.00 0.00 80 1014.7
20260831163917 67 2 1.0 2.0 0.00 0.00 0.00 79 1014.7
20260831163903 67 11 2.0 4.0 0.00 0.00 0.00 79 1014.7
20260831163803 67 43 1.0 4.0 0.00 0.00 0.00 79 1014.7
20260831163603 67 71 2.0 4.0 0.00 0.00 0.00 79 1014.8
20260831163503 67 72 2.0 4.0 0.00 0.00 0.00 79 1014.7
20260831163404 67 72 2.0 4.0 0.00 0.00 0.00 79 1014.6
20260831163303 67 75 2.0 4.0 0.00 0.00 0.00 79 1014.8
20260831163203 67 74 2.0 4.0 0.00 0.00 0.00 78 1014.7
20260831163103 67 82 2.0 4.0 0.00 0.00 0.00 77 1014.6
20260831163018 68 101 3.0 4.0 0.00 0.00 0.00 77 1014.8
20260831163003 68 105 3.0 4.0 0.00 0.00 0.00 77 1014.8
20260831162903 68 93 1.0 6.0 0.00 0.00 0.00 77 1014.7
20260831162718 69 89 0.0 6.0 0.00 0.00 0.00 77 1015.0
20260831162703 68 90 0.0 6.0 0.00 0.00 0.00 77 1014.8
20260831162603 68 86 1.0 6.0 0.00 0.00 0.00 77 1014.7
20260831162517 68 75 3.0 6.0 0.00 0.00 0.00 77 1014.5
20260831162403 68 334 4.0 6.0 0.00 0.00 0.00 77 1015.0
20260831162319 69 278 0.0 2.0 0.00 0.00 0.00 77 1014.9
20260831162203 68 286 0.0 2.0 0.00 0.00 0.00 78 1014.7
20260831162003 67 283 1.0 2.0 0.00 0.00 0.00 79 1014.9
20260831161903 67 274 1.0 2.0 0.00 0.00 0.00 79 1015.0
20260831161803 67 264 1.0 2.0 0.00 0.00 0.00 79 1014.7
20260831161703 67 258 2.0 2.0 0.00 0.00 0.00 79 1014.7
20260831161603 67 254 2.0 2.0 0.00 0.00 0.00 79 1014.7
20260831161503 67 261 1.0 2.0 0.00 0.00 0.00 79 1014.9
20260831161403 67 278 2.0 2.0 0.00 0.00 0.00 78 1014.8
20260831161316 67 290 2.0 2.0 0.00 0.00 0.00 78 1014.8
20260831161303 67 295 2.0 2.0 0.00 0.00 0.00 78 1014.8
20260831161203 68 300 0.0 2.0 0.00 0.00 0.00 78 1014.8
20260831161018 67 270 0.0 2.0 0.00 0.00 0.00 80 1014.9
20260831161003 67 269 0.0 2.0 0.00 0.00 0.00 80 1014.9
20260831160917 66 264 0.0 2.0 0.00 0.00 0.00 80 1015.0
20260831160903 66 261 0.0 2.0 0.00 0.00 0.00 80 1015.0
20260831160603 66 247 0.0 2.0 0.00 0.00 0.00 80 1014.9
20260831160503 66 274 0.0 2.0 0.00 0.00 0.00 81 1014.7
20260831160403 66 294 0.0 2.0 0.00 0.00 0.00 81 1014.9
20260831160303 65 54 2.0 2.0 0.00 0.00 0.00 81 1014.7
20260831160203 65 73 1.0 2.0 0.00 0.00 0.00 81 1014.7
20260831160103 65 66 0.0 2.0 0.00 0.00 0.00 81 1014.9
20260831160003 65 66 1.0 2.0 0.00 0.00 0.00 81 1014.9
20260831155903 65 78 1.0 4.0 0.00 0.00 0.00 81 1015.0
20260831155803 66 71 0.0 4.0 0.00 0.00 0.00 81 1015.0
20260831155703 65 82 1.0 4.0 0.00 0.00 0.00 81 1015.1
20260831155603 65 88 2.0 4.0 0.00 0.00 0.00 82 1014.8
20260831155503 65 101 1.0 4.0 0.00 0.00 0.00 82 1015.0
20260831155403 65 89 2.0 4.0 0.00 0.00 0.00 82 1014.9
20260831155306 65 83 0.0 4.0 0.00 0.00 0.00 82 1014.9
20260831155203 65 80 1.0 4.0 0.00 0.00 0.00 82 1015.0
20260831155103 65 79 1.0 4.0 0.00 0.00 0.00 82 1014.9
20260831155018 64 78 2.0 6.0 0.00 0.00 0.00 81 1014.9
20260831155003 64 79 2.0 6.0 0.00 0.00 0.00 81 1014.9
20260831154917 65 82 2.0 6.0 0.00 0.00 0.00 82 1014.8
20260831154903 65 84 2.0 6.0 0.00 0.00 0.00 82 1014.8
20260831154817 65 88 2.0 6.0 0.00 0.00 0.00 82 1014.6
20260831154503 64 84 3.0 6.0 0.00 0.00 0.00 81 1015.0
20260831154403 65 83 3.0 6.0 0.00 0.00 0.00 81 1014.8
20260831154318 65 73 2.0 4.0 0.00 0.00 0.00 80 1014.9
20260831154303 65 70 1.0 2.0 0.00 0.00 0.00 80 1014.9
20260831154203 65 92 1.0 4.0 0.00 0.00 0.00 80 1014.7
20260831154003 66 95 1.0 4.0 0.00 0.00 0.00 81 1014.7
20260831153903 66 90 0.0 4.0 0.00 0.00 0.00 81 1014.8
20260831153803 66 80 0.0 4.0 0.00 0.00 0.00 82 1014.7
20260831153703 65 66 2.0 4.0 0.00 0.00 0.00 81 1014.7
20260831153603 65 56 0.0 4.0 0.00 0.00 0.00 82 1014.5
20260831153503 64 61 2.0 4.0 0.00 0.00 0.00 82 1014.6
20260831153403 65 60 2.0 4.0 0.00 0.00 0.00 82 1014.5
20260831153318 65 69 2.0 4.0 0.00 0.00 0.00 82 1014.6
20260831153303 65 76 2.0 4.0 0.00 0.00 0.00 82 1014.6
20260831153203 65 96 1.0 4.0 0.00 0.00 0.00 83 1014.5
20260831153003 64 88 1.0 9.0 0.00 0.00 0.00 84 1014.4
20260831152903 63 96 0.0 9.0 0.00 0.00 0.00 84 1014.5
20260831152803 63 88 2.0 9.0 0.00 0.00 0.00 84 1014.6
20260831152703 63 81 2.0 9.0 0.00 0.00 0.00 84 1014.4
20260831152603 63 86 3.0 9.0 0.00 0.00 0.00 84 1014.6
20260831152503 62 80 7.0 9.0 0.00 0.00 0.00 83 1014.6
20260831152403 63 80 4.0 8.0 0.00 0.00 0.00 83 1014.4
20260831152306 64 83 2.0 6.0 0.00 0.00 0.00 84 1014.5
20260831152203 63 79 2.0 6.0 0.00 0.00 0.00 84 1014.5
20260831152103 63 66 2.0 6.0 0.00 0.00 0.00 84 1014.6
20260831152003 63 58 2.0 9.0 0.00 0.00 0.00 84 1014.6
20260831151903 63 48 3.0 9.0 0.00 0.00 0.00 84 1014.4
20260831151803 63 36 3.0 9.0 0.00 0.00 0.00 84 1014.5
20260831151703 63 39 2.0 9.0 0.00 0.00 0.00 84 1014.6
20260831151603 62 41 2.0 9.0 0.00 0.00 0.00 84 1014.6
20260831151503 63 47 2.0 7.0 0.00 0.00 0.00 84 1014.5
20260831151403 63 55 3.0 7.0 0.00 0.00 0.00 84 1014.7
20260831151303 63 72 3.0 7.0 0.00 0.00 0.00 84 1014.6
20260831151203 63 82 3.0 7.0 0.00 0.00 0.00 83 1014.5
20260831151103 63 101 2.0 7.0 0.00 0.00 0.00 83 1014.5
20260831151018 63 104 2.0 7.0 0.00 0.00 0.00 83 1014.5
20260831151003 63 101 2.0 7.0 0.00 0.00 0.00 83 1014.5
20260831150903 63 98 2.0 7.0 0.00 0.00 0.00 83 1014.5
20260831150703 63 104 3.0 7.0 0.00 0.00 0.00 82 1014.3
20260831150603 63 102 3.0 7.0 0.00 0.00 0.00 82 1014.6
20260831150517 64 113 2.0 7.0 0.00 0.00 0.00 82 1014.6
20260831150503 64 119 2.0 7.0 0.00 0.00 0.00 82 1014.6
20260831150404 64 122 3.0 7.0 0.00 0.00 0.00 82 1014.3
20260831150203 64 133 2.0 7.0 0.00 0.00 0.00 82 1014.3
20260831150117 64 130 2.0 7.0 0.00 0.00 0.00 82 1014.5
20260831150103 64 123 2.0 7.0 0.00 0.00 0.00 82 1014.5
20260831150003 64 129 3.0 7.0 0.00 0.00 0.00 82 1014.3
20260831145803 64 143 2.0 6.0 0.00 0.00 0.00 82 1014.4
20260831145703 64 103 2.0 6.0 0.00 0.00 0.00 82 1014.5
20260831145603 64 73 2.0 4.0 0.00 0.00 0.00 82 1014.4
20260831145503 64 69 1.0 4.0 0.00 0.00 0.00 82 1014.3
20260831145403 64 78 3.0 4.0 0.00 0.00 0.00 82 1014.3
20260831145306 64 45 2.0 4.0 0.00 0.00 0.00 82 1014.3
20260831145203 64 63 2.0 4.0 0.00 0.00 0.00 83 1014.4
20260831145103 64 99 2.0 6.0 0.00 0.00 0.00 83 1014.3
20260831145003 64 113 2.0 6.0 0.00 0.00 0.00 83 1014.3
20260831144903 64 131 1.0 6.0 0.00 0.00 0.00 84 1014.3
20260831144820 64 135 1.0 6.0 0.00 0.00 0.00 84 1014.3
20260831144803 64 136 1.0 6.0 0.00 0.00 0.00 84 1014.3
20260831144703 63 159 3.0 6.0 0.00 0.00 0.00 84 1014.4
20260831144503 63 209 2.0 4.0 0.00 0.00 0.00 84 1014.4
20260831144403 63 199 2.0 4.0 0.00 0.00 0.00 84 1014.2
20260831144303 63 208 2.0 4.0 0.00 0.00 0.00 84 1014.3
20260831144203 63 212 2.0 6.0 0.00 0.00 0.00 84 1014.5
20260831144117 63 202 3.0 6.0 0.00 0.00 0.00 84 1014.3
20260831144103 63 190 3.0 6.0 0.00 0.00 0.00 84 1014.3
20260831144003 63 203 2.0 6.0 0.00 0.00 0.00 84 1014.3
20260831143803 63 166 2.0 6.0 0.00 0.00 0.00 85 1014.2
20260831143717 63 139 2.0 6.0 0.00 0.00 0.00 85 1014.2
20260831143703 63 131 2.0 6.0 0.00 0.00 0.00 85 1014.2
20260831143603 63 129 2.0 4.0 0.00 0.00 0.00 85 1014.3
20260831143403 62 102 2.0 7.0 0.00 0.00 0.00 86 1014.4
20260831143303 62 101 3.0 7.0 0.00 0.00 0.00 86 1014.3
20260831143203 62 107 3.0 7.0 0.00 0.00 0.00 86 1014.0
20260831143103 62 90 1.0 7.0 0.00 0.00 0.00 86 1013.9
20260831143003 62 78 4.0 7.0 0.00 0.00 0.00 86 1014.2
20260831142918 63 91 0.0 7.0 0.00 0.00 0.00 87 1014.2
20260831142903 63 94 0.0 7.0 0.00 0.00 0.00 87 1014.2
20260831142817 62 94 1.0 7.0 0.00 0.00 0.00 88 1014.3
20260831142803 62 92 1.0 7.0 0.00 0.00 0.00 88 1014.3
20260831142503 62 129 1.0 6.0 0.00 0.00 0.00 89 1014.1
20260831142403 62 96 1.0 7.0 0.00 0.00 0.00 89 1014.0
20260831142305 61 130 0.0 8.0 0.00 0.00 0.00 90 1014.2
20260831142203 61 129 2.0 8.0 0.00 0.00 0.00 90 1014.1
20260831142103 60 121 2.0 8.0 0.00 0.00 0.00 89 1014.2
20260831142003 61 113 3.0 8.0 0.00 0.00 0.00 90 1014.2
20260831141903 61 124 2.0 8.0 0.00 0.00 0.00 90 1014.4
20260831141817 61 102 0.0 4.0 0.00 0.00 0.00 91 1014.1
20260831141803 61 101 0.0 4.0 0.00 0.00 0.00 91 1014.1
20260831141705 60 99 0.0 4.0 0.00 0.00 0.00 91 1014.1
20260831141618 60 92 2.0 6.0 0.00 0.00 0.00 91 1014.2
20260831141503 60 86 2.0 6.0 0.00 0.00 0.00 91 1014.1
20260831141303 60 84 2.0 6.0 0.00 0.00 0.00 91 1014.2
20260831141203 60 83 2.0 6.0 0.00 0.00 0.00 92 1014.3
20260831141103 60 87 3.0 4.0 0.00 0.00 0.00 92 1014.3
20260831141003 60 91 1.0 4.0 0.00 0.00 0.00 92 1014.2
20260831140918 60 99 0.0 4.0 0.00 0.00 0.00 92 1014.2
20260831140903 60 103 0.0 4.0 0.00 0.00 0.00 92 1014.2
20260831140803 60 102 0.0 4.0 0.00 0.00 0.00 92 1014.2
20260831140603 59 139 2.0 4.0 0.00 0.00 0.00 93 1014.2
20260831140503 60 142 1.0 4.0 0.00 0.00 0.00 93 1014.3
20260831140403 59 146 0.0 4.0 0.00 0.00 0.00 93 1014.2
20260831140303 59 144 2.0 4.0 0.00 0.00 0.00 93 1014.4
20260831140218 59 144 1.0 4.0 0.00 0.00 0.00 93 1014.3
20260831140203 59 140 1.0 4.0 0.00 0.00 0.00 93 1014.3
20260831135903 59 101 1.0 7.0 0.00 0.00 0.00 94 1014.5
20260831135816 59 100 2.0 7.0 0.00 0.00 0.00 94 1014.3
20260831135803 59 98 2.0 7.0 0.00 0.00 0.00 94 1014.3
20260831135703 59 86 1.0 7.0 0.00 0.00 0.00 94 1014.4
20260831135503 58 82 3.0 7.0 0.00 0.00 0.00 94 1014.3
20260831135405 58 83 4.0 7.0 0.00 0.00 0.00 94 1014.3
20260831135306 58 67 2.0 6.0 0.00 0.00 0.00 94 1014.2
20260831135203 58 92 2.0 7.0 0.00 0.00 0.00 94 1014.4
20260831135103 59 88 2.0 7.0 0.00 0.00 0.00 94 1014.4
20260831135003 59 102 1.0 8.0 0.00 0.00 0.00 95 1014.2
20260831134903 59 107 0.0 8.0 0.00 0.00 0.00 95 1014.4
20260831134803 58 109 1.0 8.0 0.00 0.00 0.00 95 1014.4
20260831134703 58 97 3.0 8.0 0.00 0.00 0.00 95 1014.3
20260831134605 58 98 2.0 8.0 0.00 0.00 0.00 95 1014.3
20260831134503 58 93 5.0 8.0 0.00 0.00 0.00 95 1014.1
20260831134403 58 95 4.0 8.0 0.00 0.00 0.00 95 1014.2
20260831134318 58 93 2.0 8.0 0.00 0.00 0.00 95 1014.2
20260831134303 58 91 2.0 8.0 0.00 0.00 0.00 95 1014.1
20260831134205 58 95 2.0 4.0 0.00 0.00 0.00 95 1014.2
20260831134117 58 91 2.0 4.0 0.00 0.00 0.00 95 1014.0
20260831134003 58 99 2.0 7.0 0.00 0.00 0.00 95 1014.1
20260831133803 58 95 2.0 9.0 0.00 0.00 0.00 95 1014.0
20260831133718 58 95 1.0 9.0 0.00 0.00 0.00 95 1014.2
20260831133703 58 91 1.0 9.0 0.00 0.00 0.00 95 1014.2
20260831133605 58 70 1.0 9.0 0.00 0.00 0.00 95 1014.2
20260831133404 58 21 4.0 9.0 0.00 0.00 0.00 96 1014.2
20260831133303 58 37 4.0 7.0 0.00 0.00 0.00 96 1013.9
20260831133218 58 45 2.0 4.0 0.00 0.00 0.00 96 1014.1
20260831133205 58 56 2.0 4.0 0.00 0.00 0.00 96 1014.1
20260831133105 58 65 2.0 4.0 0.00 0.00 0.00 96 1014.1
20260831132903 58 72 2.0 8.0 0.00 0.00 0.00 96 1013.9
20260831132805 58 70 3.0 8.0 0.00 0.00 0.00 96 1013.9
20260831132703 58 80 2.0 8.0 0.00 0.00 0.00 96 1013.9
20260831132603 58 93 3.0 8.0 0.00 0.00 0.00 96 1013.9
20260831132518 58 93 2.0 8.0 0.00 0.00 0.00 96 1014.2
20260831132503 58 92 2.0 8.0 0.00 0.00 0.00 96 1014.2
20260831132417 58 102 5.0 8.0 0.00 0.00 0.00 96 1014.1
20260831132403 58 106 5.0 8.0 0.00 0.00 0.00 96 1014.1
20260831132103 58 109 0.0 7.0 0.00 0.00 0.00 96 1014.1
20260831132003 58 114 2.0 7.0 0.00 0.00 0.00 96 1013.9
20260831131903 58 108 3.0 9.0 0.00 0.00 0.00 96 1013.9
20260831131803 58 111 3.0 9.0 0.00 0.00 0.00 96 1014.0
20260831131703 58 109 3.0 9.0 0.00 0.00 0.00 96 1014.0
20260831131603 58 105 2.0 9.0 0.00 0.00 0.00 96 1014.0
20260831131503 57 105 4.0 9.0 0.00 0.00 0.00 96 1014.0
20260831131403 58 105 4.0 9.0 0.00 0.00 0.00 96 1013.9
20260831131303 58 102 6.0 9.0 0.00 0.00 0.00 96 1013.9
20260831131203 58 94 2.0 8.0 0.00 0.00 0.00 97 1014.1
20260831131104 58 90 3.0 7.0 0.00 0.00 0.00 97 1014.0
20260831131003 58 88 3.0 8.0 0.00 0.00 0.00 97 1014.0
20260831130903 58 93 2.0 8.0 0.00 0.00 0.00 97 1013.9
20260831130803 58 77 2.0 9.0 0.00 0.00 0.00 97 1014.0
20260831130703 58 87 3.0 9.0 0.00 0.00 0.00 97 1014.0
20260831130603 58 94 3.0 9.0 0.00 0.00 0.00 97 1013.9
20260831130503 58 95 4.0 9.0 0.00 0.00 0.00 97 1013.9
20260831130403 58 86 2.0 9.0 0.00 0.00 0.00 97 1014.0
20260831130317 58 90 4.0 9.0 0.00 0.00 0.00 97 1013.7
20260831130303 58 93 3.0 8.0 0.00 0.00 0.00 97 1014.1
20260831130203 58 78 3.0 7.0 0.00 0.00 0.00 97 1013.9
20260831130004 58 62 2.0 7.0 0.00 0.00 0.00 97 1013.8
20260831125918 58 73 3.0 7.0 0.00 0.00 0.00 97 1014.0
20260831125903 58 75 2.0 7.0 0.00 0.00 0.00 97 1014.0
20260831125803 58 80 4.0 7.0 0.00 0.00 0.00 97 1013.7
20260831125603 58 93 2.0 7.0 0.00 0.00 0.00 97 1013.7
20260831125503 58 92 2.0 7.0 0.00 0.00 0.00 97 1013.8
20260831125403 58 73 3.0 7.0 0.00 0.00 0.00 97 1013.8
20260831125306 58 72 3.0 7.0 0.00 0.00 0.00 97 1013.7